                ,  0.304,  0.404,  0.504,  0.604,  0.704,  0.804,  0.904,  1.004,  1.104,  1.204,  1.304,  1.404,  1.504,  1.604,  1.704,  1.804,  1.904,  2.004,  2.104,  2.204,  2.304,  2.404,  2.504,  2.604,  2.704,  2.804,  2.904,  3.004,  3.104,  3.204,  3.304,  3.404,  3.504,  3.604,  3.704,  3.804,  3.904,  4.004,  4.104,  4.204,  4.304,  4.404,  4.504,  4.604,  4.704,  4.804,  4.904,  5.004,  5.104,  5.204,  5.304,  5.404,  5.504,  5.604,  5.704,  5.804,  5.904,  6.004,  6.104,  6.204,  6.304,  6.404,  6.504,  6.604,  6.704,  6.804,  6.904,  7.004,  7.104,  7.204,  7.304,  7.404,  7.504,  7.604,  7.704,  7.804,  7.904,  8.004,  8.104,  8.204
2015/08/26 00:00,  999.0,  999.0,  999.0,  999.0,  999.0,  999.0,  999.0,  999.0,  999.0,  999.0,   -3.4,   -4.2,   -1.5,   -1.3,   -1.6,   -1.7,   -1.1,   -2.0,   -3.7,   -3.3,   -3.1,   -2.3,   -2.2,   -4.7,   -5.0,   -1.9,   -1.7,   -1.2,   -1.0,   -1.0,   -0.9,   -5.1,   -5.8,   -5.4,   -5.2,   -4.8,   -0.5,   -0.0,    0.0,   -0.2,   -0.2,    0.0,    0.2,   -2.6,   -2.4,   -2.5,   -0.4,   -0.2,   -0.1,    0.1,   -0.2,   -0.0,   -0.0,   -0.1,   -0.0,    0.3,    0.0,   -0.1,  999.0,   -1.1,   -0.2,   -0.3,   -0.0,   -0.0,   -0.0,  999.0,  999.0,   -0.0,  999.0,  999.0,  999.0,  999.0,   -0.0,  999.0,  999.0,  999.0,  999.0,  999.0,  999.0,  999.0
2015/08/26 00:10,   -2.7,   -3.2,   -3.0,   -2.9,   -2.8,   -2.7,   -1.8,   -0.7,   -0.6,   -0.4,   -0.4,   -0.8,   -0.1,    0.0,   -0.0,   -0.0,   -0.9,   -0.9,   -1.2,    0.0,   -1.3,   -1.3,   -1.9,   -1.1,   -0.7,   -1.6,   -1.5,   -1.3,   -1.4,    0.2,   -1.8,   -1.8,   -1.8,   -2.5,   -2.5,   -1.3,   -1.7,    0.1,    0.1,    0.0,    0.1,    0.0,   -0.1,   -0.2,   -0.2,   -0.0,   -0.1,   -0.1,   -0.1,   -0.0,   -0.0,    0.1,    0.1,   -0.0,    0.2,   -0.1,    0.1,    0.0,    0.3,  999.0,   -0.3,   -0.0,  999.0,    0.1,    0.0,  999.0,  999.0,  999.0,  999.0,  999.0,  999.0,  999.0,  999.0,  999.0,  999.0,  999.0,  999.0,  999.0,  999.0,  999.0
2015/08/26 00:20,   -0.1,   -0.2,   -0.2,   -0.1,   -0.0,    0.2,    0.1,    0.1,    0.0,   -0.0,   -0.0,    0.0,    0.1,    0.1,    0.2,    0.0,    0.2,    0.2,    0.1,    0.1,    0.0,    0.1,    0.0,   -0.1,   -0.1,   -0.1,   -0.1,   -0.0,   -0.0,   -0.2,   -0.1,   -0.2,   -0.1,   -0.1,   -0.0,   -0.1,   -0.3,   -0.2,   -0.3,   -0.1,   -0.2,   -0.2,   -0.2,   -0.2,   -0.0,    0.0,    0.2,    0.1,    0.0,   -0.1,   -0.1,   -0.2,   -0.0,    0.1,    0.0,   -0.1,   -0.0,  999.0,  999.0,  999.0,  999.0,  999.0,  999.0,    0.0,    0.0,  999.0,  999.0,  999.0,  999.0,  999.0,  999.0,   -0.0,  999.0,  999.0,  999.0,  999.0,  999.0,  999.0,  999.0,  999.0
2015/08/26 00:30,    0.0,   -0.1,   -0.1,    0.0,    0.2,    0.1,    0.1,    0.2,    0.2,    0.2,    0.1,    0.1,    0.1,    0.0,   -0.1,   -0.1,   -0.1,   -0.1,   -0.1,   -0.1,   -0.1,   -0.2,   -0.1,   -0.2,   -0.2,   -0.0,   -0.1,    0.1,    0.1,    0.0,    0.0,   -0.2,   -0.3,   -0.3,   -0.5,   -0.2,   -1.3,   -2.4,   -1.1,   -1.1,   -0.9,   -0.6,   -0.4,   -0.6,   -1.1,   -0.2,   -0.3,   -0.0,    0.2,   -0.0,   -0.3,   -0.8,   -0.4,   -0.4,   -0.3,   -0.4,   -0.1,    0.0,    0.1,    0.3,    0.5,    0.4,    0.4,    0.3,  999.0,  999.0,  999.0,  999.0,  999.0,  999.0,  999.0,  999.0,  999.0,   -0.1,  999.0,  999.0,   -1.2,  999.0,  999.0,  999.0
2015/08/26 00:40,  999.0,   -4.0,   -4.9,   -5.2,   -5.1,   -5.0,   -5.0,   -4.9,   -4.9,   -4.7,   -3.7,   -3.7,   -6.2,   -6.3,   -6.3,   -6.5,   -5.2,   -5.3,   -5.6,   -7.3,   -7.2,   -7.1,   -6.8,   -6.7,   -6.4,   -6.4,   -6.4,   -6.4,   -6.3,   -6.4,   -6.5,   -6.7,   -5.8,   -6.4,   -6.6,   -6.6,   -6.6,   -6.7,   -6.7,   -6.3,   -6.5,   -4.7,   -4.3,   -3.8,   -4.0,   -3.0,   -2.0,   -2.4,   -1.9,   -1.8,   -1.8,   -1.6,   -1.6,   -1.5,   -1.3,   -1.2,   -1.0,   -0.9,   -0.8,   -0.4,   -0.6,   -0.2,   -0.1,   -0.2,    0.2,    0.1,    0.2,    0.3,    0.4,    0.3,  999.0,  999.0,  999.0,   -1.0,  999.0,   -1.1,   -1.1,   -1.3,   -1.3,   -1.3
2015/08/26 00:50,   -5.9,   -5.4,   -5.3,   -4.9,   -5.0,   -4.9,   -4.7,   -4.5,   -4.3,   -4.0,   -3.6,   -4.5,   -4.4,   -4.3,   -3.8,   -3.5,   -2.6,   -2.6,   -2.1,   -3.2,   -2.7,   -5.4,   -5.3,   -5.6,   -5.7,   -5.0,   -5.0,   -5.1,   -5.1,   -4.7,   -4.5,   -4.3,   -4.3,   -4.1,   -4.3,   -5.0,   -4.7,   -4.9,   -4.9,   -4.8,   -4.7,   -4.8,   -5.7,   -4.8,   -4.5,   -3.4,   -2.6,   -1.8,   -2.0,   -1.7,   -1.6,   -1.4,   -1.4,   -1.5,   -1.2,   -0.9,   -0.7,   -0.7,   -0.6,   -0.6,   -0.4,   -0.1,    0.1,    0.1,    0.1,    0.2,    0.1,    0.0,   -0.1,   -0.7,   -1.0,   -1.1,   -1.3,   -1.3,   -1.3,   -1.4,   -1.5,   -1.5,   -1.5,   -1.5
2015/08/26 01:00,   -1.4,   -1.4,   -1.3,  999.0,   -0.6,  999.0,  999.0,  999.0,  999.0,   -0.1,    0.1,   -0.1,   -1.2,    0.0,  999.0,   -1.4,   -1.6,   -2.5,   -3.4,   -3.4,   -3.3,   -3.5,   -3.7,   -3.6,   -3.6,   -3.5,   -4.2,   -5.9,   -4.2,   -4.6,   -5.7,   -5.9,   -4.5,   -6.1,   -3.9,   -6.3,   -4.8,   -4.6,   -4.6,   -3.9,   -3.9,   -4.4,   -4.3,   -4.0,   -3.5,   -2.8,  999.0,   -1.2,   -0.7,   -0.8,   -0.7,   -0.9,   -0.7,   -0.6,   -0.8,   -0.7,   -0.7,   -0.7,   -0.6,   -0.5,   -0.2,   -0.4,   -0.4,   -0.1,    0.0,   -0.4,   -1.4,   -1.6,   -1.7,   -1.8,   -1.8,   -1.6,   -1.5,   -1.5,   -1.3,   -1.3,   -1.3,   -1.2,   -1.1,   -1.0
2015/08/26 01:10,    0.1,    0.1,    0.1,    0.1,   -0.0,   -0.0,    0.1,    0.1,    0.0,   -0.1,   -0.1,    0.0,    0.1,    0.2,    0.2,    0.3,    0.3,    0.2,    0.2,    0.1,    0.2,  999.0,   -0.1,   -0.1,   -0.0,   -0.0,   -0.0,   -0.1,   -0.1,   -0.0,    0.0,   -0.0,    0.0,   -0.0,   -0.0,    0.0,    0.0,    0.1,    0.1,    0.1,    0.1,    0.2,    0.2,    0.2,    0.1,    0.1,    0.1,   -0.0,   -0.2,   -0.2,   -0.2,   -0.2,   -0.3,   -0.2,   -0.1,   -0.0,    0.1,    0.0,    0.0,    0.0,   -0.1,    0.2,  999.0,   -0.1,  999.0,   -1.2,   -1.4,   -1.0,   -0.9,   -0.9,   -1.0,   -1.0,   -1.0,   -1.0,   -1.2,   -1.2,   -1.2,   -1.3,   -1.2,   -1.2
2015/08/26 01:20,   -0.0,    0.1,    0.1,    0.1,    0.1,    0.1,    0.1,    0.1,   -0.1,   -0.1,   -0.2,   -0.1,   -0.0,    0.0,    0.1,   -0.1,   -0.0,   -0.0,    0.0,   -0.0,    0.1,   -0.2,   -0.2,   -0.2,   -0.0,   -0.0,   -0.1,   -0.0,    0.0,    0.1,    0.0,    0.0,   -0.0,    0.2,    0.2,    0.1,    0.1,    0.0,    0.2,    0.0,    0.1,    0.1,    0.1,   -0.2,   -0.2,   -0.3,   -0.3,   -0.3,   -0.2,   -0.3,   -0.3,   -0.3,   -0.2,   -0.0,   -0.2,   -0.1,    0.0,   -0.1,   -0.1,  999.0,    0.1,   -0.2,   -0.2,   -0.5,   -0.5,   -2.0,   -2.1,   -1.4,   -1.4,   -1.4,   -1.5,   -1.4,   -1.3,   -1.2,   -1.3,   -1.2,   -1.2,   -1.5,   -1.6,   -1.8
2015/08/26 01:30,  999.0,   -0.1,    0.1,    0.0,   -0.0,   -0.0,    0.1,   -0.0,   -0.0,   -0.2,   -0.0,    0.0,    0.0,    0.1,    0.0,   -0.0,   -0.1,   -0.1,   -0.1,   -0.1,   -0.2,   -0.1,   -0.2,   -0.1,   -0.1,   -0.2,   -0.2,   -0.1,   -0.1,   -0.1,   -0.1,   -0.0,   -0.2,   -0.1,    0.1,   -0.0,   -0.1,   -0.1,   -0.1,   -0.2,   -0.1,   -0.2,   -0.2,   -0.1,   -0.2,    0.0,    0.0,    0.0,    0.1,    0.1,    0.2,    0.1,    0.1,   -0.2,   -0.1,    0.1,   -0.1,   -0.2,    0.3,  999.0,  999.0,  999.0,   -2.1,   -2.1,   -2.1,   -2.1,   -2.0,   -1.9,   -1.7,   -1.5,   -1.5,   -1.5,   -1.4,   -1.3,   -1.4,   -1.4,   -1.4,   -1.2,   -1.3,   -1.7
2015/08/26 01:40,   -0.1,   -0.1,   -0.0,   -0.1,   -0.0,    0.0,   -0.1,   -0.0,   -0.1,   -0.1,   -0.2,   -0.0,   -0.0,    0.1,   -0.0,   -0.1,   -0.0,    0.0,   -0.0,   -0.0,   -0.0,   -0.0,    0.0,    0.0,   -0.1,  999.0,  999.0,   -0.1,    0.1,    0.0,    0.1,    0.2,    0.1,    0.2,    0.2,    0.2,    0.4,    0.4,    0.4,    0.4,    0.4,    0.4,    0.3,    0.4,    0.4,    0.4,    0.3,    0.4,    0.4,    0.3,    0.3,    0.2,    0.2,    0.2,    0.2,    0.1,    0.0,    0.2,  999.0,  999.0,  999.0,  999.0,  999.0,  999.0,  999.0,  999.0,  999.0,   -1.2,   -0.5,   -0.8,   -0.9,   -0.9,   -0.9,   -1.1,   -1.2,   -1.3,   -1.2,  999.0,  999.0,  999.0
2015/08/26 01:50,   -0.0,    0.0,    0.1,   -0.1,    0.1,   -0.2,   -0.2,   -0.2,   -0.2,   -0.2,   -0.2,   -0.1,   -0.1,    0.0,    0.0,   -0.0,    0.1,    0.0,    0.0,    0.0,   -0.1,   -0.3,   -0.3,   -0.1,   -0.1,    0.1,    0.1,    0.1,    0.1,   -0.0,    0.1,    0.2,    0.2,    0.1,    0.1,   -0.1,    0.0,    0.0,    0.0,   -0.0,    0.2,    0.2,    0.3,    0.3,    0.4,    0.4,    0.3,    0.3,    0.3,    0.3,    0.3,    0.2,    0.1,    0.1,    0.1,    0.3,   -0.0,   -0.0,    0.1,  999.0,  999.0,  999.0,  999.0,  999.0,   -0.1,  999.0,  999.0,   -1.2,   -0.8,   -0.9,   -1.3,   -1.3,   -1.4,   -1.4,   -1.3,   -1.2,   -1.3,   -1.2,   -1.1,   -1.0
2015/08/26 02:00,    0.1,    0.1,   -0.1,   -0.0,    0.1,    0.0,    0.1,    0.2,    0.0,    0.0,    0.0,    0.0,    0.0,   -0.0,    0.0,    0.0,    0.2,    0.0,    0.0,    0.1,  999.0,   -0.5,   -0.3,   -0.2,   -0.1,    0.1,    0.1,    0.2,    0.2,    0.1,    0.1,    0.2,    0.2,    0.3,    0.2,    0.2,    0.2,    0.1,    0.1,    0.1,    0.1,    0.0,    0.0,    0.1,   -0.1,    0.1,   -0.0,   -0.0,    0.0,   -0.0,    0.1,   -0.0,    0.0,   -0.0,   -0.0,    0.0,   -0.1,  999.0,  999.0,  999.0,  999.0,  999.0,  999.0,   -0.5,   -1.1,   -1.1,   -1.4,   -1.3,   -1.2,   -1.2,   -1.1,   -1.1,   -1.0,   -0.9,   -0.7,   -0.7,   -0.8,   -0.8,   -0.9,   -1.0
2015/08/26 02:10,    0.0,   -0.0,   -0.1,   -0.1,    0.0,   -0.1,   -0.2,   -0.1,   -0.0,    0.1,   -0.1,   -0.1,   -0.2,   -0.1,   -0.2,   -0.1,   -0.2,   -0.3,   -0.3,   -0.4,   -0.7,   -0.6,   -0.4,   -0.3,   -0.2,   -0.0,    0.1,  999.0,    0.2,   -0.0,    0.1,  999.0,    0.4,    0.5,    0.5,    0.5,    0.5,    0.5,    0.4,    0.5,    0.5,    0.5,    0.4,    0.4,    0.1,    0.2,    0.0,    0.1,    0.0,    0.2,    0.0,    0.1,    0.1,    0.2,    0.2,    0.1,   -0.0,   -0.0,  999.0,   -0.3,  999.0,  999.0,  999.0,  999.0,   -2.6,   -2.5,   -2.2,   -1.9,   -1.9,   -1.5,   -1.5,   -1.3,   -1.4,   -1.4,   -1.3,   -1.2,   -1.4,   -1.5,   -1.4,   -1.2
2015/08/26 02:20,   -1.4,   -2.4,   -2.9,   -2.4,   -2.4,   -3.5,   -3.5,   -3.6,   -3.7,   -3.7,   -2.3,   -4.1,   -3.0,   -3.1,   -3.0,   -3.2,   -2.1,   -1.2,   -0.5,   -0.9,   -1.8,   -1.9,   -2.4,   -2.6,   -2.5,   -2.0,   -3.1,   -4.2,   -2.6,   -2.1,   -2.5,   -3.5,   -2.2,   -1.6,   -1.3,   -1.8,   -1.8,   -0.8,   -0.6,   -0.7,   -2.1,   -1.9,   -1.8,   -1.7,   -1.9,   -1.0,   -0.7,   -0.2,   -0.3,   -0.2,   -0.0,   -0.3,   -0.4,   -0.6,   -0.5,   -0.1,   -0.0,   -0.3,   -0.2,   -0.2,   -0.1,   -0.2,   -0.1,   -0.3,   -0.2,  999.0,   -1.0,   -0.8,   -0.8,   -0.7,   -0.8,   -0.8,   -0.9,   -0.9,   -0.8,   -0.7,   -0.8,   -0.8,   -0.5,   -0.4
2015/08/26 02:30,   -0.4,   -1.0,    0.2,    0.2,    0.1,    0.3,    0.2,    0.2,    0.2,    0.3,   -0.1,   -0.2,   -0.2,   -0.6,   -0.1,   -0.2,    0.0,    0.4,    0.4,   -0.9,   -1.0,   -1.9,   -1.7,   -1.7,   -2.0,   -2.8,   -2.1,   -2.3,   -2.2,   -2.1,   -1.6,   -1.4,   -1.4,   -1.7,   -1.6,   -1.0,   -1.1,   -1.5,   -1.5,   -1.5,   -1.9,   -1.5,   -1.7,   -1.2,   -1.3,   -1.2,   -0.8,   -0.8,   -1.2,  999.0,   -0.2,   -0.3,   -0.4,   -0.8,   -0.3,   -0.3,   -0.3,   -0.1,   -0.1,   -0.1,   -0.1,   -0.3,   -0.4,   -1.1,   -1.4,   -1.3,   -1.3,   -1.2,   -1.1,   -1.0,   -1.0,   -0.9,   -0.9,   -0.8,   -0.7,   -0.6,   -0.5,   -0.6,   -0.7,   -0.6
2015/08/26 02:40,    0.0,    0.3,    0.2,    0.1,    0.1,    0.1,    0.1,    0.1,    0.0,    0.1,    0.1,    0.0,    0.1,    0.2,    0.2,    0.1,    0.1,    0.1,    0.1,    0.1,   -0.1,   -0.1,   -0.1,   -0.1,   -0.3,   -0.1,   -0.1,    0.0,   -0.1,    0.1,    0.2,    0.3,    0.1,    0.1,    0.2,    0.0,    0.0,    0.1,    0.0,   -0.0,  999.0,  999.0,  999.0,  999.0,  999.0,    0.1,    0.1,   -0.1,    0.2,    0.0,   -0.2,   -0.0,   -0.1,   -0.0,  999.0,   -0.8,   -1.0,   -1.2,   -1.3,   -1.1,   -1.2,   -1.4,   -1.3,   -1.4,   -1.2,   -1.1,   -1.1,   -1.1,   -1.0,   -0.9,   -0.8,   -0.6,   -0.5,   -0.5,   -0.4,   -0.5,   -0.5,   -0.7,   -0.8,   -1.0
2015/08/26 02:50,    0.0,    0.0,   -0.0,    0.0,   -0.0,    0.1,    0.2,    0.0,    0.1,    0.1,    0.2,    0.1,    0.1,    0.2,    0.2,    0.1,    0.0,    0.0,    0.0,    0.0,  999.0,  999.0,  999.0,  999.0,  999.0,  999.0,   -2.9,   -2.7,   -2.7,   -2.6,   -2.6,   -2.5,   -2.5,   -2.6,   -2.6,   -3.1,   -3.0,   -3.0,   -3.0,   -2.8,   -2.8,   -2.9,   -2.9,   -2.6,   -1.5,   -1.0,   -1.0,   -1.0,   -1.0,   -0.7,   -0.4,   -0.2,   -0.6,   -0.8,   -1.1,   -1.3,   -1.3,   -1.2,   -1.0,   -1.0,   -1.0,   -0.9,   -0.8,   -0.9,   -0.9,   -0.9,   -0.9,   -0.8,   -0.8,   -0.8,   -0.7,   -0.7,   -0.6,   -0.5,   -0.6,   -0.4,   -0.6,   -0.6,   -0.6,  999.0
2015/08/26 03:00,   -0.9,   -0.8,   -1.1,   -1.1,   -0.8,   -0.8,   -0.8,   -0.8,   -0.8,   -0.8,   -0.8,   -1.0,   -1.0,   -1.0,   -1.0,   -1.0,   -1.0,   -1.2,   -2.6,   -3.7,   -3.6,   -2.2,   -2.2,   -2.2,   -2.2,   -3.3,   -3.4,   -3.2,   -3.1,   -3.0,   -2.6,   -2.8,   -2.9,   -2.9,   -2.8,   -2.8,   -2.9,   -2.8,   -2.7,   -2.5,   -2.3,   -2.3,   -2.3,   -2.2,   -1.4,   -0.8,   -0.6,   -0.4,   -0.5,   -0.6,   -0.1,   -0.0,   -0.0,  999.0,   -0.9,   -0.8,   -0.8,   -0.8,   -0.7,   -0.7,   -0.9,   -0.9,   -0.9,   -0.9,   -0.9,   -0.7,   -0.7,   -0.5,   -0.4,   -0.3,   -0.4,   -0.3,   -0.2,   -0.4,   -0.4,   -0.4,   -0.5,  999.0,  999.0,  999.0
2015/08/26 03:10,   -4.4,   -4.5,   -4.5,   -4.5,   -4.3,   -4.2,   -4.1,   -4.1,   -4.0,   -3.9,   -4.1,   -3.9,   -3.8,   -3.8,   -3.8,   -3.8,   -3.9,   -4.0,   -3.9,   -3.8,   -3.6,   -3.5,   -3.4,   -3.3,   -3.3,   -3.2,   -3.2,   -3.2,   -2.6,   -2.6,   -2.9,   -2.9,   -3.1,   -3.0,   -2.8,   -2.8,   -2.9,   -2.8,   -2.8,   -2.7,   -2.8,   -2.9,   -3.0,   -2.5,   -1.8,   -1.4,   -1.3,   -1.2,   -1.2,   -1.1,   -1.1,   -0.7,   -0.6,   -0.6,   -0.4,  999.0,  999.0,   -0.4,   -0.5,   -0.4,   -0.2,   -0.1,   -0.2,   -0.2,   -0.5,  999.0,   -1.0,   -0.9,   -1.1,   -1.2,   -1.4,   -0.8,   -1.0,   -1.0,   -1.1,   -1.3,   -1.5,   -1.5,   -1.5,   -1.7
2015/08/26 03:20,   -5.7,   -5.5,   -5.5,   -5.4,   -5.3,   -5.4,   -5.4,   -5.4,   -5.5,   -5.5,   -5.4,   -5.5,   -5.5,   -5.5,   -5.5,   -5.5,   -5.5,   -5.6,   -5.6,   -5.6,   -5.6,   -5.6,   -5.6,   -5.6,   -5.5,   -5.5,   -5.5,   -5.3,   -5.4,   -5.4,   -5.3,   -5.4,   -5.3,   -5.3,   -5.4,   -5.4,   -5.4,   -5.6,   -5.6,   -5.6,   -5.5,   -5.1,   -4.0,  999.0,  999.0,   -1.8,   -1.8,   -1.7,   -1.5,   -1.4,   -1.4,   -1.2,   -1.1,   -0.9,   -0.6,   -0.5,   -0.4,   -0.4,   -0.5,   -0.7,   -0.9,   -0.9,   -0.6,   -0.4,   -0.2,  999.0,   -0.4,  999.0,  999.0,   -1.0,  999.0,  999.0,  999.0,  999.0,  999.0,  999.0,  999.0,  999.0,  999.0,  999.0
2015/08/26 03:30,   -3.5,   -3.5,   -3.5,   -3.6,   -3.5,   -3.7,   -4.3,   -4.1,   -4.6,   -4.9,   -5.0,   -5.0,   -5.0,   -4.9,   -4.9,   -5.0,   -4.9,   -5.0,   -4.9,   -5.0,   -5.0,   -5.1,   -5.2,   -5.1,   -5.2,   -5.0,   -5.0,   -4.9,   -5.0,   -4.9,   -4.9,   -5.0,   -4.8,   -4.8,   -5.0,   -5.1,   -5.2,   -5.1,   -5.0,   -4.9,   -4.9,   -5.0,   -4.4,   -2.6,  999.0,   -1.5,   -1.4,   -1.4,   -1.3,   -1.2,   -1.1,   -1.0,   -0.9,   -1.1,   -1.3,   -1.3,   -1.4,   -1.7,   -2.0,   -1.9,   -1.8,   -1.8,   -1.7,   -1.5,   -1.2,   -1.0,   -0.8,   -0.6,   -0.5,   -0.7,   -0.4,   -0.8,   -0.6,   -0.1,  999.0,  999.0,  999.0,  999.0,  999.0,  999.0
2015/08/26 03:40,   -5.8,   -5.8,   -5.7,   -5.7,   -5.8,   -5.8,   -5.9,   -6.0,   -6.1,   -6.1,   -6.2,   -6.3,   -6.3,   -6.3,   -6.3,   -6.3,   -6.2,   -6.2,   -6.1,   -6.1,   -6.2,   -6.3,   -6.2,   -6.3,   -6.3,   -6.3,   -6.2,   -6.2,   -6.2,   -6.4,   -6.5,   -6.6,   -6.5,   -6.4,   -6.2,   -6.3,   -6.1,   -6.1,   -5.8,   -5.9,   -5.7,   -5.3,   -4.0,  999.0,   -1.4,   -1.2,   -1.3,   -1.3,   -1.3,   -1.4,   -1.3,   -1.2,   -1.2,   -1.2,   -1.2,   -1.2,   -1.3,   -1.5,   -1.6,   -1.5,   -1.6,   -1.5,   -1.5,   -1.4,   -1.2,   -1.1,   -0.9,   -0.9,   -0.7,   -0.8,   -0.9,   -1.0,   -0.9,   -0.9,   -0.9,   -1.1,   -1.0,  999.0,  999.0,  999.0
2015/08/26 03:50,   -6.7,   -4.1,   -5.5,   -5.2,   -5.0,   -5.0,   -5.4,   -6.1,   -6.3,   -4.4,   -3.5,   -3.5,   -3.5,   -3.6,   -3.5,   -3.5,   -4.3,   -3.4,   -4.1,   -3.2,   -3.2,   -3.1,   -3.1,   -3.1,   -3.1,   -3.0,   -3.7,   -3.1,   -2.7,   -2.2,   -2.4,   -2.4,   -2.4,   -2.3,   -2.6,   -2.2,   -2.2,   -1.8,   -1.9,   -1.9,   -1.7,   -0.4,   -0.2,   -0.2,   -0.5,   -0.6,   -0.7,   -1.2,   -1.2,   -1.2,   -1.2,   -1.2,   -1.2,   -1.3,   -1.3,   -1.3,   -1.3,   -1.3,   -1.2,   -1.2,   -1.2,   -1.1,   -1.1,   -1.0,   -1.0,   -0.9,   -0.8,   -0.7,   -0.8,   -0.8,   -0.9,   -0.9,   -1.0,   -1.0,   -1.1,   -1.1,   -1.2,   -1.3,   -1.3,   -1.5
2015/08/26 04:00,    0.0,   -0.2,    0.1,   -1.0,   -0.7,   -0.6,   -0.2,   -0.1,   -0.2,   -0.2,   -0.2,   -0.3,   -0.3,   -0.4,   -0.3,   -0.1,   -0.0,   -0.0,   -0.0,   -0.0,   -0.0,   -0.1,   -0.0,   -0.0,    0.1,    0.1,    0.2,    0.2,    0.2,    0.1,   -0.1,   -0.1,    0.1,    0.1,   -0.1,   -0.1,    0.0,    0.1,    0.0,    0.0,    0.1,    0.2,    0.2,    0.0,    0.0,    0.0,    0.0,    0.2,    0.1,    0.1,   -0.4,   -0.4,   -0.4,   -0.6,   -1.0,   -0.9,   -0.7,   -1.1,   -1.2,   -1.3,   -1.2,   -1.2,   -1.3,   -1.3,   -1.3,   -1.3,   -1.4,   -1.4,   -1.4,   -1.4,   -1.3,   -1.2,   -1.1,   -1.1,   -1.0,   -1.0,   -1.0,   -1.1,   -1.0,   -1.0
2015/08/26 04:10,   -0.0,    0.0,    0.1,   -0.0,   -0.0,   -0.0,   -0.1,   -0.0,   -0.0,    0.0,    0.0,   -0.0,   -0.0,   -0.0,   -0.0,   -0.0,   -0.0,   -0.0,   -0.0,   -0.0,   -0.0,   -0.0,   -0.1,   -0.0,   -0.0,   -0.1,   -0.0,    0.0,    0.1,    0.1,    0.0,    0.0,    0.1,  999.0,    0.0,    0.0,    0.4,    0.2,    0.1,    0.2,    0.2,    0.2,    0.2,    0.1,    0.2,    0.1,    0.1,   -0.0,    0.0,   -0.0,   -0.1,   -0.1,   -0.1,    0.1,    0.0,   -0.1,   -0.1,  999.0,  999.0,  999.0,   -0.3,   -0.6,   -0.6,   -0.7,   -0.6,   -0.7,   -0.7,   -0.6,   -0.6,   -0.5,   -0.5,   -0.5,   -0.4,   -0.4,   -0.3,   -0.2,   -0.4,  999.0,  999.0,  999.0
2015/08/26 04:20,    0.0,    0.0,    0.0,    0.0,    0.0,    0.0,   -0.0,   -0.0,    0.0,    0.1,    0.1,    0.0,    0.0,   -0.0,    0.0,    0.0,   -0.0,    0.0,   -0.0,    0.0,    0.0,    0.0,    0.1,    0.1,    0.1,    0.2,    0.3,    0.2,    0.2,    0.3,    0.1,    0.1,    0.2,    0.1,    0.1,    0.1,    0.1,    0.0,    0.0,   -0.0,   -0.0,    0.1,    0.1,    0.0,    0.0,    0.1,    0.0,   -0.1,   -0.1,   -0.1,   -0.1,   -0.1,   -0.1,   -0.0,   -0.1,   -0.0,    0.0,    0.1,    0.1,  999.0,  999.0,  999.0,    0.0,  999.0,   -0.0,  999.0,  999.0,  999.0,  999.0,  999.0,   -0.8,   -0.5,   -0.2,   -0.3,   -0.4,    0.2,  999.0,  999.0,  999.0,  999.0
2015/08/26 04:30,    0.0,    0.0,    0.0,   -0.0,   -0.0,   -0.0,   -0.0,   -0.0,    0.0,    0.0,   -0.0,    0.0,    0.0,   -0.0,   -0.0,   -0.0,   -0.0,    0.0,   -0.0,   -0.0,   -0.0,   -0.0,   -0.1,   -0.1,   -0.1,   -0.1,   -0.1,   -0.0,    0.0,   -0.0,    0.1,    0.1,    0.1,    0.1,    0.0,    0.1,    0.2,   -0.0,   -0.0,   -0.0,    0.0,    0.2,    0.1,    0.0,    0.0,    0.1,    0.1,    0.2,    0.0,    0.2,    0.0,    0.1,    0.1,   -0.0,  999.0,    0.1,    0.2,  999.0,  999.0,  999.0,  999.0,   -0.0,    0.0,   -0.0,   -0.0,   -0.0,   -0.1,  999.0,  999.0,  999.0,  999.0,  999.0,    0.0,   -0.1,    0.1,  999.0,  999.0,  999.0,  999.0,  999.0
2015/08/26 04:40,    0.0,    0.0,    0.0,    0.0,    0.0,    0.0,   -0.0,   -0.0,    0.0,    0.1,    0.1,    0.0,    0.0,   -0.0,   -0.0,   -0.0,   -0.0,    0.0,   -0.0,    0.0,    0.0,    0.0,    0.1,    0.0,    0.0,    0.1,    0.2,    0.2,    0.3,    0.2,    0.2,    0.1,    0.0,    0.0,    0.1,    0.1,    0.1,    0.0,   -0.1,    0.0,    0.0,    0.1,   -0.2,   -0.1,   -0.1,   -0.1,   -0.0,   -0.1,   -0.2,   -0.2,   -0.4,   -0.4,   -0.4,   -0.4,   -0.4,   -0.2,    0.0,    0.1,   -0.0,    0.0,   -0.1,    0.1,   -0.0,   -0.1,   -0.0,    0.1,  999.0,  999.0,    0.0,  999.0,  999.0,    0.0,    0.0,  999.0,    0.0,  999.0,  999.0,  999.0,  999.0,  999.0
2015/08/26 04:50,  999.0,   -3.0,   -3.6,   -3.5,   -3.4,   -4.6,   -2.7,   -3.3,   -3.2,   -3.2,   -3.2,   -2.4,   -1.9,   -0.9,   -2.2,   -0.1,   -1.3,   -1.2,   -1.1,   -1.0,   -1.9,   -1.6,   -2.0,   -1.3,   -0.7,   -0.7,   -0.6,   -1.8,   -1.0,   -0.9,   -1.1,   -1.1,   -0.9,   -0.7,   -0.5,    0.6,    0.5,    0.5,    0.3,    0.2,    0.2,   -0.1,   -0.1,   -0.4,   -0.4,   -0.6,   -1.0,   -1.2,   -1.2,   -0.8,   -0.5,   -0.4,   -0.4,   -0.2,   -0.2,   -0.1,   -0.0,    0.0,  999.0,  999.0,  999.0,  999.0,   -0.0,    0.0,    0.1,    0.1,  999.0,  999.0,  999.0,    0.1,   -0.1,  999.0,  999.0,  999.0,  999.0,  999.0,  999.0,  999.0,  999.0,  999.0
2015/08/26 05:00,   -5.8,   -5.9,   -6.0,   -6.2,   -6.2,   -6.0,   -5.9,   -5.8,   -5.7,   -5.5,   -5.4,   -5.2,   -5.0,   -4.8,   -4.7,   -4.5,   -4.4,   -4.1,   -3.9,   -3.7,   -2.9,   -3.0,   -4.3,   -4.8,   -5.2,   -4.7,   -3.6,   -2.7,   -0.9,   -2.5,   -1.7,   -1.8,   -1.7,   -1.7,   -1.7,   -1.7,   -1.6,   -1.6,   -2.4,   -2.4,   -2.3,   -1.5,   -1.1,   -0.8,   -1.0,   -1.2,   -1.1,   -1.2,   -1.0,   -1.1,   -1.0,   -1.0,   -0.8,   -0.7,   -0.8,   -0.6,   -0.7,   -1.2,   -1.0,  999.0,  999.0,   -0.7,  999.0,   -0.7,   -0.7,  999.0,   -0.7,   -0.6,   -0.4,   -0.4,  999.0,  999.0,  999.0,    0.0,  999.0,  999.0,  999.0,  999.0,  999.0,  999.0
2015/08/26 05:10,   -5.7,   -5.7,   -5.8,   -6.1,   -6.0,   -6.1,   -5.9,   -5.7,   -5.5,   -5.3,   -5.1,   -5.5,   -5.9,   -5.9,   -5.9,   -5.9,   -5.8,   -5.8,   -5.6,   -5.5,   -5.5,   -6.7,   -6.6,   -6.8,   -6.6,   -6.6,   -6.6,   -7.0,   -6.9,   -6.9,   -6.9,   -7.0,   -6.9,   -6.9,   -7.0,   -7.1,   -7.2,   -7.1,   -7.1,   -7.0,   -6.0,   -4.3,  999.0,   -2.3,   -1.9,   -1.8,   -1.8,   -1.8,   -1.7,   -1.6,   -1.6,   -1.5,   -1.5,   -1.5,   -1.5,   -1.5,   -1.5,   -1.4,   -1.4,   -1.3,   -1.3,   -1.2,   -1.1,   -1.1,   -0.9,   -0.9,   -0.8,   -0.8,   -0.7,   -0.9,   -0.8,  999.0,  999.0,   -0.0,   -0.1,  999.0,  999.0,  999.0,  999.0,  999.0
2015/08/26 05:20,   -6.6,   -6.6,   -6.8,   -6.5,   -6.7,   -6.7,   -6.8,   -6.8,   -6.9,   -6.9,   -7.0,   -7.1,   -7.0,   -7.0,   -7.0,   -7.0,   -7.1,   -7.1,   -7.1,   -7.1,   -7.2,   -7.2,   -7.3,   -7.5,   -7.6,   -7.6,   -7.7,   -7.8,   -7.9,   -8.0,   -8.6,   -8.6,   -8.6,   -8.7,   -8.5,   -8.8,   -8.7,   -8.4,   -8.3,   -8.0,   -6.8,   -5.1,   -3.7,   -2.7,   -2.2,   -2.1,   -1.9,   -1.8,   -1.7,   -1.6,   -1.6,   -1.5,   -1.5,   -1.5,   -1.4,   -1.4,   -1.5,   -1.6,   -1.6,   -1.5,   -1.4,   -1.4,   -1.3,   -1.3,   -1.2,   -1.2,   -1.2,   -1.2,   -1.2,   -1.2,   -1.2,   -1.1,   -1.1,   -1.0,   -1.1,   -1.1,   -1.1,   -0.9,   -1.0,   -1.1
2015/08/26 05:30,   -7.8,   -8.0,   -8.0,   -7.9,  999.0,   -7.9,   -8.0,   -8.1,   -8.1,   -8.0,   -8.0,   -8.0,   -8.0,   -8.1,   -8.1,   -8.2,   -8.2,   -8.3,   -8.4,   -8.5,   -8.6,   -8.7,   -8.7,   -8.7,   -8.8,   -8.9,   -9.0,   -9.0,   -9.1,   -9.2,   -9.2,   -9.2,   -9.1,   -9.2,   -9.2,   -9.2,   -9.2,   -9.3,   -9.0,   -7.9,   -6.9,   -5.3,   -4.0,   -3.3,   -3.0,   -2.7,   -2.5,   -2.3,   -2.2,   -2.1,   -2.0,   -1.9,   -1.8,   -1.8,   -1.7,   -1.6,   -1.6,   -1.6,   -1.6,   -1.6,   -1.6,   -1.6,   -1.5,   -1.5,   -1.4,   -1.4,   -1.5,   -1.5,   -1.5,   -1.4,   -1.4,   -1.4,   -1.3,   -1.2,   -1.1,   -1.1,   -1.1,   -0.9,   -0.9,   -0.7
2015/08/26 05:40,   -7.7,   -7.7,   -7.7,   -7.7,   -7.7,   -7.7,   -7.8,   -7.8,   -7.9,   -7.9,   -7.9,   -7.9,   -8.0,   -8.0,   -8.1,   -8.1,   -8.0,   -8.1,   -8.2,   -8.3,   -8.4,   -8.4,   -8.6,   -8.7,   -8.7,   -8.7,   -8.7,   -8.7,   -8.8,   -8.8,   -8.8,   -8.9,   -8.9,   -8.9,   -9.0,   -9.1,   -9.1,   -9.0,   -9.0,   -8.7,   -7.8,   -6.8,   -5.3,   -4.0,   -3.2,   -2.6,   -2.3,   -2.0,   -1.9,   -1.7,   -1.6,   -1.6,   -1.5,   -1.5,   -1.4,   -1.3,   -1.3,   -1.3,   -1.3,   -1.3,   -1.2,   -1.2,   -1.2,   -1.3,   -1.2,   -1.2,   -1.1,   -1.2,   -1.2,   -1.1,   -1.1,   -1.1,   -1.0,   -0.9,   -0.8,   -0.8,   -0.7,   -0.6,   -0.5,   -0.5
2015/08/26 05:50,   -7.2,   -7.1,   -6.9,   -6.9,   -6.8,   -6.9,   -6.9,   -7.0,   -7.1,   -7.1,   -7.1,   -7.2,   -7.3,   -7.3,   -7.2,   -7.3,   -7.3,   -7.2,   -7.5,   -7.7,   -7.8,   -7.8,   -7.8,   -7.8,   -7.7,   -7.8,   -7.7,   -7.7,   -7.8,   -7.9,   -7.9,   -8.0,   -8.1,   -8.2,   -8.4,   -8.4,   -8.4,   -8.4,   -8.3,   -7.4,   -7.0,   -5.4,   -4.0,   -2.6,   -2.2,   -2.0,   -1.8,   -1.7,   -1.6,   -1.6,   -1.5,   -1.4,   -1.3,   -1.2,   -1.2,   -1.1,   -1.1,   -1.1,   -1.2,   -1.2,   -1.2,   -1.1,   -1.1,   -1.0,   -1.0,   -1.0,   -0.9,   -0.9,   -0.6,   -0.5,   -0.5,   -0.3,   -0.7,   -0.7,   -0.6,   -0.1,    0.0,  999.0,  999.0,  999.0
2015/08/26 06:00,   -6.1,   -6.1,   -6.1,   -6.0,   -6.1,   -6.1,   -6.0,   -5.9,   -5.7,   -6.0,   -6.0,   -5.9,   -5.9,   -5.8,   -5.8,   -5.7,   -5.8,   -5.7,   -5.6,   -5.6,   -5.6,   -5.8,   -5.9,   -6.0,   -6.0,   -6.1,   -6.0,   -6.0,   -6.0,   -6.0,   -6.0,   -6.0,   -6.1,   -6.2,   -6.1,   -6.1,   -6.2,   -6.1,   -6.1,   -6.0,   -6.0,   -6.1,   -5.6,   -4.6,  999.0,   -2.4,   -1.9,   -1.7,   -1.7,   -1.6,   -1.5,   -1.6,   -1.6,   -1.5,   -1.4,   -1.5,   -1.4,   -1.3,   -1.3,   -1.3,   -1.4,   -1.4,   -1.3,   -1.4,   -1.3,   -1.2,   -1.1,   -1.0,   -0.9,   -0.9,   -0.7,   -0.4,   -0.2,   -0.4,   -0.2,   -0.3,   -0.3,   -0.4,   -0.3,  999.0
2015/08/26 06:10,   -6.1,   -6.2,   -6.2,   -6.3,   -6.3,   -6.2,   -6.5,   -6.5,   -6.5,   -6.5,   -6.2,   -6.2,   -6.3,   -6.1,   -6.4,   -6.5,   -6.5,   -6.6,   -6.6,   -6.6,   -6.6,   -6.6,   -6.6,   -6.8,   -6.9,   -6.9,   -6.9,   -7.1,   -7.0,   -7.2,   -7.4,   -7.6,   -7.7,   -7.8,   -7.7,   -7.9,   -7.8,   -7.8,   -7.6,   -7.1,   -7.0,   -5.9,   -4.3,   -3.2,   -2.7,   -2.1,   -1.9,   -1.8,   -1.6,   -1.4,   -1.4,   -1.3,   -1.2,   -1.1,   -1.1,   -1.0,   -1.0,   -1.1,   -1.2,   -1.2,   -1.1,   -1.1,   -1.1,   -1.2,   -1.1,   -1.1,   -1.0,   -1.0,   -1.0,   -1.0,   -1.0,   -0.9,   -1.1,   -0.8,   -0.8,   -0.9,   -1.1,   -1.1,   -0.8,   -0.9
2015/08/26 06:20,   -6.6,   -6.8,   -6.8,   -6.8,   -6.7,   -6.6,   -6.5,   -6.3,   -6.4,   -6.4,   -6.0,   -6.0,   -5.9,   -5.9,   -5.9,   -6.1,   -6.4,   -6.2,   -6.1,   -6.1,   -6.5,   -6.2,   -6.3,   -6.4,   -6.4,   -6.4,   -6.5,   -6.5,   -6.5,   -6.5,   -6.6,   -6.7,   -6.4,   -6.1,   -6.4,   -6.5,   -6.5,   -6.6,   -6.3,   -6.3,   -6.2,   -5.7,   -4.4,   -2.7,   -2.4,   -1.8,   -1.8,   -1.7,   -1.7,   -1.7,   -1.7,   -1.6,   -1.6,   -1.7,   -1.7,   -1.8,   -1.8,   -1.6,   -1.5,   -1.3,   -1.2,   -1.2,   -1.1,   -1.2,   -1.2,   -1.1,   -0.8,   -0.9,   -0.8,   -0.8,   -0.8,   -0.6,   -0.4,   -0.3,   -0.2,   -0.6,   -0.3,  999.0,  999.0,  999.0
2015/08/26 06:30,   -6.7,   -6.6,   -6.6,   -6.8,   -6.9,   -6.9,   -6.9,   -7.0,   -7.1,   -7.1,   -7.1,   -7.0,   -7.0,   -6.8,   -6.8,   -6.8,   -6.8,   -6.8,   -6.7,   -6.8,   -6.8,   -6.8,   -6.8,   -7.0,   -6.9,   -6.8,   -7.1,   -7.0,   -7.1,   -7.2,   -7.2,   -7.2,   -7.4,   -7.3,   -7.3,   -7.2,   -7.3,   -7.4,   -7.4,   -7.6,   -7.8,   -6.7,   -5.3,   -3.7,  999.0,   -2.3,   -2.1,   -2.1,   -2.0,   -1.9,   -1.9,   -1.9,   -1.8,   -1.7,   -1.6,   -1.6,   -1.6,   -1.5,   -1.4,   -1.4,   -1.3,   -1.4,   -1.5,   -1.4,   -1.4,   -1.2,   -1.1,   -1.2,   -1.1,   -1.0,   -1.0,   -0.8,   -0.5,   -0.4,   -0.4,  999.0,  999.0,  999.0,  999.0,  999.0
2015/08/26 06:40,   -7.0,   -7.0,   -6.9,   -6.9,   -6.8,   -6.9,   -6.8,   -6.9,   -6.9,   -6.9,   -6.9,   -6.9,   -6.8,   -6.7,   -6.7,   -6.7,   -6.7,   -6.7,   -6.7,   -6.7,   -6.7,   -6.9,   -7.0,   -7.1,   -7.2,   -7.6,   -7.5,   -7.5,   -7.5,   -7.5,   -7.3,   -7.4,   -7.3,   -7.3,   -7.2,   -7.1,   -7.0,   -7.3,   -7.2,   -7.2,   -6.8,   -6.5,   -5.8,   -4.3,   -3.1,   -2.5,   -2.1,   -2.1,   -1.9,   -1.7,   -1.7,   -1.6,   -1.5,   -1.4,   -1.5,   -1.5,   -1.6,   -1.6,   -1.5,   -1.4,   -1.3,   -1.3,   -1.2,   -1.2,   -1.4,   -1.3,   -1.2,   -1.0,   -1.1,   -0.9,   -0.9,   -0.6,   -0.7,   -0.2,   -0.1,  999.0,  999.0,  999.0,  999.0,  999.0
2015/08/26 06:50,   -7.1,   -7.1,   -7.1,   -6.9,   -7.0,   -7.1,   -7.1,   -7.2,   -7.3,   -7.3,   -7.4,   -7.5,   -7.5,   -7.5,   -7.5,   -7.6,   -7.6,   -7.6,   -7.9,   -7.9,   -7.9,   -7.9,   -8.1,   -8.1,   -8.3,   -8.3,   -8.2,   -8.6,   -8.4,   -8.4,   -8.4,   -8.4,   -8.7,   -7.9,   -7.8,   -8.4,   -8.4,   -8.3,   -8.2,   -8.3,   -8.0,   -7.6,   -6.6,   -5.8,   -3.5,   -2.9,   -2.5,   -2.3,   -2.2,   -2.1,   -2.1,   -2.0,   -1.9,   -1.8,   -1.7,   -1.6,   -1.5,   -1.3,   -1.2,   -1.1,   -1.1,   -1.0,   -1.0,   -0.9,   -0.8,   -0.9,   -0.7,   -0.8,   -0.7,   -0.7,   -0.6,   -0.6,   -0.4,    0.0,    0.0,   -0.3,  999.0,   -0.1,    0.1,  999.0
2015/08/26 07:00,   -6.6,   -6.6,   -6.6,   -6.4,   -6.5,   -6.2,   -6.2,   -6.4,   -6.8,   -6.7,   -6.6,   -6.5,   -6.4,   -6.1,   -6.1,   -6.5,   -6.0,   -7.0,   -6.7,   -6.7,   -6.8,   -7.5,   -7.9,   -7.7,   -7.5,   -8.2,   -8.0,   -8.1,   -9.2,   -7.8,   -8.9,   -8.7,   -9.0,   -8.5,   -8.0,   -7.2,   -7.2,   -7.7,   -7.9,   -8.3,   -8.1,   -7.5,   -6.4,   -4.9,   -3.6,   -2.7,   -2.5,   -2.3,   -2.2,   -2.2,   -2.0,   -1.9,   -1.9,   -1.8,   -1.7,   -1.6,   -1.6,   -1.5,   -1.5,   -1.4,   -1.3,   -1.1,   -1.2,   -1.1,   -1.0,   -1.0,   -0.9,   -0.9,   -0.9,   -0.9,   -0.8,   -0.9,   -0.9,   -0.3,   -0.1,   -0.1,   -0.1,   -0.2,  999.0,  999.0
2015/08/26 07:10,   -5.4,   -5.4,   -5.3,   -5.3,   -5.3,   -5.2,   -5.2,   -5.6,   -5.6,   -5.6,   -5.7,   -5.5,   -5.6,   -5.5,   -5.7,   -5.8,   -5.8,   -5.9,   -6.2,   -6.4,   -6.4,   -6.4,   -6.4,   -6.4,   -6.4,   -6.4,   -6.5,   -6.6,   -6.6,   -6.7,   -6.8,   -6.8,   -6.8,   -6.9,   -7.0,   -6.9,   -7.0,   -7.0,   -6.9,   -7.1,   -7.3,   -7.1,   -6.7,   -5.6,   -4.3,   -3.2,   -2.5,   -2.4,   -2.1,   -1.9,   -1.7,   -1.6,   -1.5,   -1.4,   -1.3,   -1.2,   -1.1,   -1.1,   -1.1,   -1.1,   -1.1,   -1.1,   -1.1,   -1.0,   -0.9,   -0.8,   -0.8,   -0.7,   -0.7,   -0.8,   -0.7,   -0.5,   -0.3,   -0.4,    0.0,   -0.1,   -0.1,    0.2,   -0.1,  999.0
2015/08/26 07:20,   -6.3,   -6.4,   -6.4,   -6.4,   -6.4,   -6.3,   -6.2,   -6.2,   -6.1,   -6.1,   -6.2,   -6.2,   -6.3,   -6.3,   -6.4,   -6.4,   -6.3,   -6.5,   -6.5,   -6.6,   -6.6,   -6.7,   -6.8,   -7.0,   -7.0,   -7.1,   -7.1,   -7.2,   -7.2,   -7.2,   -7.1,   -7.2,   -7.2,   -7.2,   -7.2,   -7.3,   -7.3,   -7.4,   -7.5,   -7.5,   -7.7,   -7.8,   -6.9,   -5.5,   -4.4,   -3.2,   -2.6,   -2.2,   -2.0,   -1.9,   -1.7,   -1.6,   -1.5,   -1.4,   -1.3,   -1.2,   -1.1,   -1.1,   -1.1,   -1.0,   -1.0,   -1.0,   -1.1,   -1.1,   -1.1,   -1.0,   -1.0,   -1.0,   -0.9,   -0.9,   -0.8,   -0.8,   -0.7,   -0.5,   -0.4,  999.0,   -0.9,   -0.3,   -0.7,   -0.9
2015/08/26 07:30,   -6.3,   -6.0,   -6.0,   -6.2,   -6.3,   -6.4,   -6.4,   -6.3,   -6.2,   -6.2,   -6.1,   -6.1,   -6.1,   -6.0,   -6.1,   -6.1,   -6.0,   -6.0,   -5.9,   -6.1,   -6.1,   -6.1,   -6.2,   -6.4,   -6.5,   -6.6,   -6.7,   -6.8,   -6.8,   -6.7,   -6.8,   -6.8,   -6.7,   -6.8,   -6.7,   -6.8,   -7.1,   -7.1,   -7.2,   -7.2,   -7.3,   -7.4,  999.0,   -6.8,   -4.9,   -3.5,   -2.5,   -2.0,   -1.7,   -1.6,   -1.5,   -1.4,   -1.4,   -1.3,   -1.3,   -1.2,   -1.1,   -1.0,   -1.0,   -1.0,   -1.0,   -1.1,   -1.0,   -1.1,   -1.2,   -1.2,   -1.2,   -1.1,   -1.0,   -1.1,   -1.0,   -0.6,   -0.5,   -0.3,   -0.2,   -0.0,   -0.0,  999.0,  999.0,  999.0
2015/08/26 07:40,   -5.5,   -5.0,   -4.9,   -4.7,   -4.6,   -4.7,   -5.8,   -6.0,   -5.9,   -5.8,   -5.9,   -5.9,   -5.9,   -2.9,   -2.8,   -2.9,   -2.8,   -2.7,   -2.8,   -2.8,   -2.6,   -2.6,   -2.5,   -2.8,   -2.8,   -2.6,   -2.2,   -1.9,   -0.8,   -0.7,   -2.1,   -1.4,   -1.5,   -1.7,   -1.5,   -1.5,   -1.9,   -1.2,   -2.0,   -1.4,   -2.3,   -1.8,   -1.7,   -2.2,   -2.0,   -1.0,   -0.8,   -0.8,   -0.8,   -0.8,   -0.8,   -0.6,   -0.6,   -0.8,   -1.2,   -0.7,   -0.6,   -0.4,   -0.3,   -0.5,   -0.6,   -0.4,   -0.4,   -0.0,    0.0,    0.0,   -0.1,   -0.0,   -0.1,   -0.2,    0.1,    0.0,    0.1,    0.0,   -0.0,  999.0,  999.0,  999.0,  999.0,  999.0
2015/08/26 07:50,  999.0,   -3.3,   -1.9,   -1.6,  999.0,   -0.7,   -0.2,   -1.3,   -2.1,   -2.0,   -2.0,   -1.4,   -1.4,   -1.3,   -1.2,   -0.9,   -0.8,   -0.4,   -0.3,   -0.3,   -0.3,   -0.1,   -0.0,   -0.1,   -0.0,   -0.2,   -0.4,   -0.2,   -0.0,  999.0,   -0.1,   -0.7,   -0.9,   -1.3,   -1.3,   -1.3,   -1.1,   -1.0,   -1.1,   -1.3,   -0.8,   -0.7,   -0.5,   -0.3,   -0.1,   -0.1,   -0.1,   -0.1,   -0.1,   -0.0,   -0.0,    0.2,   -0.1,    0.1,  999.0,   -0.1,    0.0,    0.1,    0.1,  999.0,  999.0,    0.1,    0.0,   -0.0,    0.0,   -0.1,   -0.0,  999.0,  999.0,  999.0,    0.0,   -0.0,  999.0,   -0.1,   -0.0,    0.1,  999.0,  999.0,  999.0,  999.0
2015/08/26 08:00,   -3.5,   -3.9,   -3.7,   -3.6,   -3.5,   -3.2,   -3.0,   -3.1,   -3.1,   -3.0,   -3.0,   -2.8,   -2.6,   -2.8,   -2.9,   -2.6,   -1.5,   -1.5,   -1.1,   -0.9,   -0.5,   -0.3,   -0.1,   -0.3,   -0.2,   -0.2,   -0.1,   -0.2,   -0.3,   -0.2,   -0.1,   -0.2,   -0.4,   -0.5,   -0.3,   -0.5,   -0.4,   -0.4,   -0.4,   -0.3,   -0.2,    0.0,   -0.0,    0.1,   -0.1,   -0.1,    0.0,    0.0,   -0.1,   -0.1,   -0.2,   -0.1,   -0.2,   -0.4,   -0.1,   -0.1,   -0.1,   -0.0,    0.1,    0.1,    0.4,   -0.0,    0.0,  999.0,    0.0,   -0.0,    0.0,    0.1,  999.0,   -0.2,  999.0,   -0.1,    0.1,   -0.0,    0.0,  999.0,  999.0,  999.0,  999.0,  999.0
2015/08/26 08:10,   -2.3,   -2.6,   -2.7,   -2.8,   -2.7,   -2.6,   -2.5,   -2.4,   -2.2,   -1.8,   -1.5,   -1.1,   -0.9,   -1.0,   -0.6,   -0.4,   -0.3,   -0.2,   -0.1,   -0.2,  999.0,  999.0,  999.0,  999.0,  999.0,  999.0,  999.0,  999.0,  999.0,  999.0,   -2.0,   -2.0,   -2.0,   -1.9,   -1.9,   -2.6,   -2.5,   -1.5,   -1.8,   -2.1,   -1.6,   -1.5,   -1.5,   -1.5,   -1.3,   -1.1,   -0.9,   -0.7,   -0.4,   -0.3,    0.0,   -0.1,   -0.0,   -0.0,    0.1,   -0.1,    0.1,  999.0,   -0.1,   -0.0,  999.0,  999.0,    0.1,  999.0,   -0.1,   -0.1,   -0.1,   -0.0,  999.0,  999.0,   -0.0,    0.0,   -0.0,   -0.0,    0.0,  999.0,  999.0,  999.0,  999.0,  999.0
2015/08/26 08:20,  999.0,  999.0,  999.0,   -1.7,   -1.7,   -1.7,   -1.7,   -1.7,   -1.5,   -1.3,   -1.2,   -1.1,   -0.9,   -0.8,   -0.7,   -0.5,   -0.4,   -0.2,   -0.1,   -0.1,   -0.1,   -0.2,   -0.1,   -0.0,   -0.1,   -0.0,   -0.1,   -0.0,    0.1,    0.1,    0.1,    0.0,    0.1,    0.2,    0.3,    0.2,    0.3,    0.1,   -0.1,    0.1,    0.2,    0.3,    0.4,    0.5,    0.4,    0.5,    0.3,    0.3,    0.4,    0.5,    0.3,    0.3,    0.1,    0.1,   -0.1,    0.0,    0.3,   -0.1,  999.0,  999.0,  999.0,    0.1,   -0.0,   -0.1,   -0.0,    0.3,  999.0,  999.0,  999.0,  999.0,  999.0,  999.0,    0.0,   -0.0,    0.0,  999.0,  999.0,  999.0,  999.0,  999.0
2015/08/26 08:30,  999.0,   -1.9,   -2.0,   -2.1,   -2.0,   -2.0,   -2.0,   -1.7,   -1.6,   -1.5,   -1.5,   -1.4,   -1.1,   -1.1,   -0.8,   -0.8,   -0.5,   -0.4,   -0.2,   -0.2,   -0.2,   -0.1,   -0.1,   -0.1,   -0.1,   -0.1,   -0.1,    0.0,    0.1,    0.1,    0.1,    0.1,    0.2,    0.4,    0.1,    0.0,    0.2,    0.3,    0.4,    0.5,    0.5,    0.6,    0.7,    0.6,    0.7,    0.7,    0.6,    0.5,    0.6,    0.6,    0.7,    0.6,  999.0,    0.5,  999.0,   -0.0,    0.3,  999.0,  999.0,    0.0,  999.0,  999.0,    0.2,    0.1,    0.2,  999.0,  999.0,  999.0,  999.0,  999.0,  999.0,  999.0,    0.0,   -0.0,    0.0,  999.0,  999.0,  999.0,  999.0,  999.0
2015/08/26 08:40,  999.0,   -1.8,   -1.8,   -1.8,   -1.9,   -1.9,   -1.9,   -1.8,   -1.8,   -1.8,   -1.7,   -1.5,   -1.5,   -1.5,   -1.5,   -1.3,   -1.0,   -0.7,   -0.3,   -0.2,   -0.1,   -0.1,   -0.1,   -0.1,   -0.1,   -0.1,   -0.2,   -0.2,   -0.1,   -0.0,   -0.0,    0.0,    0.1,    0.3,    0.2,    0.3,    0.3,    0.5,    0.5,    0.6,    0.5,    0.5,    0.6,    0.7,    0.9,    0.7,    0.7,    0.8,    0.8,    0.8,    0.8,    0.7,    0.8,    0.9,    0.6,    0.7,  999.0,    0.7,  999.0,    0.5,    0.1,    0.2,    0.4,    0.5,    0.5,  999.0,  999.0,  999.0,  999.0,  999.0,  999.0,   -0.0,    0.0,    0.0,    0.0,  999.0,  999.0,  999.0,  999.0,  999.0
2015/08/26 08:50,  999.0,   -2.2,   -2.1,   -2.1,   -2.1,   -2.1,   -2.0,   -1.9,   -1.8,   -1.7,   -1.6,   -1.4,   -1.3,   -1.1,   -1.0,   -0.8,   -0.5,   -0.3,   -0.1,   -0.1,   -0.1,   -0.1,   -0.0,   -0.0,   -0.0,   -0.0,   -0.0,   -0.1,   -0.0,    0.1,    0.1,    0.1,    0.1,    0.4,    0.2,    0.4,    0.4,    0.6,    0.6,    0.5,    0.6,    0.6,    1.3,    0.4,    0.8,    0.7,    0.6,    0.5,    0.6,    0.5,    0.6,    0.7,    0.9,    0.8,    0.8,    0.8,    1.0,    0.9,  999.0,    0.7,    0.5,    0.7,    0.7,    0.8,  999.0,  999.0,  999.0,  999.0,  999.0,  999.0,  999.0,  999.0,    0.0,    0.0,  999.0,  999.0,  999.0,  999.0,  999.0,  999.0
2015/08/26 09:00,  999.0,   -1.7,   -1.8,   -1.8,   -1.7,   -1.7,   -1.6,   -1.5,   -1.5,   -1.4,   -1.3,   -1.2,   -1.1,   -1.1,   -1.0,   -0.7,   -0.5,   -0.3,   -0.1,   -0.0,   -0.0,   -0.0,   -0.0,   -0.0,   -0.0,    0.0,   -0.0,   -0.0,   -0.1,    0.1,   -0.0,    0.1,    0.1,    0.3,    0.2,    0.2,    0.2,    0.3,    0.4,    0.2,    0.3,    0.2,    0.1,    0.1,    0.1,    0.1,    0.2,    0.2,    0.1,    0.3,    0.4,    0.4,    0.4,    0.5,    0.7,    0.6,  999.0,  999.0,    0.7,    0.3,    0.3,    0.4,    0.3,    0.1,   -0.1,  999.0,  999.0,  999.0,  999.0,  999.0,  999.0,    0.0,    0.0,    0.0,  999.0,  999.0,  999.0,  999.0,  999.0,  999.0
2015/08/26 09:10,  999.0,   -1.5,   -1.7,   -1.4,   -1.1,   -1.0,   -1.6,   -1.6,   -1.4,   -0.9,   -1.5,   -0.9,   -1.5,   -1.5,   -0.7,   -0.5,   -1.0,   -0.7,   -0.8,   -0.8,   -1.1,   -1.1,   -0.8,   -1.3,   -0.7,   -0.7,   -1.2,   -2.1,   -1.2,   -1.8,   -1.2,   -1.1,   -0.9,   -0.5,   -0.5,   -0.2,   -0.6,   -0.8,   -1.4,   -0.9,   -0.5,   -0.6,   -0.4,   -0.3,   -0.2,    0.2,    0.1,    0.2,    0.2,    0.2,    0.1,    0.2,    0.3,    0.5,    0.4,    0.1,    0.1,   -0.1,    0.1,    0.2,    0.3,    0.2,  999.0,  999.0,  999.0,  999.0,  999.0,  999.0,  999.0,  999.0,  999.0,  999.0,   -0.1,   -0.0,  999.0,  999.0,  999.0,  999.0,  999.0,  999.0
2015/08/26 09:20,   -4.6,   -4.6,   -4.6,   -4.8,   -4.4,   -4.8,   -4.8,   -4.8,   -4.9,   -5.1,   -5.1,   -5.0,   -4.7,   -4.7,   -4.8,   -4.6,   -4.8,   -4.7,   -4.7,   -4.6,   -4.7,   -4.6,   -4.5,   -4.4,   -3.8,   -3.6,   -3.2,   -3.2,   -3.2,   -3.8,   -3.6,   -3.5,   -3.4,   -3.4,   -3.3,   -3.6,   -3.3,   -3.3,   -3.2,   -2.7,   -2.6,   -3.3,   -3.2,   -3.1,   -2.6,   -2.5,   -2.2,   -1.9,   -1.6,   -1.5,   -1.3,   -1.0,   -0.7,   -0.5,   -0.2,    0.1,    0.2,    0.2,    0.1,    0.0,    0.1,    0.3,  999.0,  999.0,  999.0,  999.0,  999.0,  999.0,  999.0,  999.0,  999.0,    0.0,   -0.0,   -0.0,    0.0,  999.0,  999.0,  999.0,  999.0,  999.0
2015/08/26 09:30,   -4.9,   -4.7,   -4.9,   -4.7,   -4.7,   -4.7,   -4.9,   -4.8,   -4.6,   -4.8,   -4.7,   -4.0,   -3.9,   -3.6,   -4.2,   -4.1,   -4.3,   -3.9,   -3.8,   -3.7,   -3.7,   -3.7,   -3.5,   -3.3,   -2.5,  999.0,   -1.9,   -1.5,   -1.7,   -1.6,   -1.5,   -2.2,   -2.3,   -2.2,   -2.7,   -2.4,   -2.3,   -2.3,   -2.1,   -1.7,   -1.8,   -1.6,   -1.5,   -1.3,   -1.5,   -1.1,   -0.9,   -0.8,   -0.6,   -0.8,   -0.9,   -0.9,   -0.2,   -0.5,   -0.4,   -0.4,   -0.4,   -0.2,   -0.2,   -0.2,   -0.1,    0.0,    0.1,  999.0,  999.0,  999.0,  999.0,  999.0,  999.0,  999.0,  999.0,  999.0,   -0.0,    0.0,   -0.1,  999.0,  999.0,  999.0,  999.0,  999.0
2015/08/26 09:40,   -4.2,   -3.6,   -3.9,   -3.5,   -3.6,   -3.7,   -3.5,   -3.2,   -3.4,   -3.0,   -3.2,   -3.1,   -3.1,   -3.0,   -3.0,   -3.6,   -2.8,   -2.5,   -2.4,   -2.3,   -2.2,   -2.0,   -2.0,   -2.1,   -3.0,   -2.9,   -2.7,   -2.5,   -2.4,   -2.0,   -1.9,   -1.9,   -2.0,   -1.9,   -1.8,   -1.6,   -1.4,   -1.2,   -1.0,   -0.9,   -0.8,   -0.7,   -0.7,   -0.6,   -0.5,    0.0,    0.0,    0.1,    0.1,   -0.2,   -0.5,   -0.8,   -0.6,   -0.5,   -0.5,   -0.5,   -0.4,   -0.3,   -0.2,   -0.1,    0.1,    0.3,  999.0,  999.0,  999.0,  999.0,  999.0,  999.0,  999.0,  999.0,  999.0,  999.0,    0.0,   -0.0,   -0.0,  999.0,  999.0,  999.0,  999.0,  999.0
2015/08/26 09:50,   -1.9,   -1.8,   -1.8,   -1.7,   -1.6,   -1.5,   -1.4,   -1.3,   -1.2,   -1.0,   -1.0,   -0.9,   -0.8,   -0.7,   -0.7,   -0.6,   -0.5,   -0.4,   -0.2,   -0.4,   -0.5,   -0.5,   -0.6,   -0.6,   -0.6,   -0.5,   -0.3,   -0.1,   -0.2,   -0.2,   -0.1,    0.0,    0.1,    0.2,    0.1,    0.2,   -0.0,    0.1,    0.0,   -0.2,    0.0,    0.1,   -0.1,   -0.1,    0.1,    0.1,   -0.3,   -0.1,    0.0,   -0.1,   -0.2,   -0.1,   -0.0,   -0.2,   -0.2,   -0.1,   -0.0,   -0.2,   -0.2,   -0.3,   -0.1,    0.1,   -0.2,    0.0,   -0.0,  999.0,    0.0,  999.0,  999.0,  999.0,    0.0,    0.0,  999.0,   -0.1,  999.0,  999.0,  999.0,  999.0,  999.0,  999.0
2015/08/26 10:00,  999.0,   -1.8,   -1.7,   -1.7,   -1.9,   -1.8,   -1.6,   -1.6,   -1.6,   -1.5,   -1.4,   -1.1,   -1.1,   -1.6,   -1.5,   -1.3,   -1.6,   -1.7,   -2.1,   -2.0,   -1.8,   -1.9,   -1.5,   -1.4,   -2.1,   -2.1,   -2.1,   -1.7,   -1.8,   -1.9,   -3.0,   -2.6,   -3.1,   -3.1,   -2.9,   -0.9,   -0.8,    0.0,   -0.7,   -0.8,   -0.9,   -1.4,   -0.7,   -0.5,   -0.6,   -0.3,   -0.2,   -0.3,   -0.6,   -0.7,   -1.0,   -1.1,   -1.0,   -0.9,   -0.8,   -0.8,   -0.5,   -0.5,   -0.5,   -0.3,   -0.2,   -0.1,   -0.1,   -0.0,    0.1,  999.0,  999.0,  999.0,  999.0,  999.0,  999.0,  999.0,    0.1,   -0.0,    0.0,  999.0,  999.0,  999.0,  999.0,  999.0
2015/08/26 10:10,  999.0,   -1.8,   -1.7,   -1.6,   -1.5,   -1.3,   -1.3,   -1.2,   -1.2,   -1.0,   -0.9,   -0.8,   -0.5,   -0.5,   -0.4,   -0.3,   -0.2,   -0.2,   -0.1,   -0.2,   -0.1,   -0.1,    0.0,    0.0,    0.0,   -0.0,    0.1,    0.1,    0.1,    0.1,    0.0,    0.0,   -0.1,    0.0,   -0.0,    0.1,    0.0,    0.0,    0.0,    0.1,    0.1,    0.0,    0.1,    0.1,    0.1,    0.1,    0.2,    0.0,    0.0,   -0.1,   -0.2,   -0.3,   -0.2,   -0.2,   -0.0,   -0.1,   -0.0,   -0.1,   -0.2,   -0.1,   -0.0,  999.0,  999.0,  999.0,   -0.0,  999.0,  999.0,  999.0,  999.0,    0.0,    0.0,   -0.0,    0.0,    0.0,   -0.0,  999.0,  999.0,  999.0,  999.0,  999.0
2015/08/26 10:20,  999.0,   -0.5,   -0.5,   -0.1,   -0.0,   -0.0,   -0.1,   -0.1,   -0.0,   -0.1,   -0.1,   -0.1,   -0.0,   -0.1,   -0.1,   -0.1,   -0.1,   -0.0,   -0.0,   -0.0,   -0.0,    0.0,    0.0,   -0.0,   -0.0,    0.1,    0.0,    0.0,   -0.0,    0.1,    0.1,    0.0,    0.1,    0.1,    0.1,    0.1,    0.2,    0.2,    0.1,    0.1,    0.1,    0.1,    0.1,   -0.0,   -0.1,    0.2,    0.1,   -0.0,   -0.2,   -0.2,   -0.3,   -0.2,   -0.3,   -0.2,   -0.3,   -0.2,   -0.2,   -0.3,   -0.3,   -0.1,  999.0,  999.0,  999.0,  999.0,    0.0,  999.0,    0.0,  999.0,  999.0,  999.0,  999.0,   -0.0,    0.1,    0.0,  999.0,  999.0,  999.0,  999.0,  999.0,  999.0
2015/08/26 10:30,    0.0,    0.1,   -0.2,   -0.0,    0.0,    0.0,   -0.0,   -0.0,    0.0,    0.0,   -0.0,    0.0,   -0.0,   -0.1,   -0.1,   -0.1,   -0.0,   -0.0,    0.0,    0.0,    0.0,    0.0,    0.0,    0.0,    0.0,    0.0,    0.1,    0.2,    0.1,    0.2,    0.2,    0.3,    0.3,    0.4,    0.3,    0.2,    0.2,    0.2,    0.2,    0.3,    0.1,    0.1,   -0.0,   -0.1,   -0.1,   -0.0,   -0.2,   -0.2,   -0.1,   -0.2,   -0.2,   -0.3,   -0.2,   -0.4,   -0.2,   -0.3,   -0.4,   -0.3,    0.3,  999.0,  999.0,  999.0,  999.0,  999.0,  999.0,  999.0,  999.0,  999.0,  999.0,  999.0,  999.0,  999.0,  999.0,  999.0,  999.0,  999.0,  999.0,  999.0,  999.0,  999.0
2015/08/26 10:40,   -0.0,   -0.0,   -0.1,   -0.1,   -0.1,   -0.1,   -0.1,   -0.0,   -0.1,   -0.2,   -0.4,   -0.4,   -0.6,   -0.8,   -0.7,   -0.6,   -0.5,   -0.4,   -0.3,   -0.2,   -0.1,   -0.0,    0.0,    0.0,    0.0,    0.1,    0.2,    0.2,    0.1,    0.1,    0.3,    0.3,    0.2,    0.2,    0.4,    0.3,    0.4,    0.5,    0.5,    0.5,    0.6,    0.7,    0.7,    0.8,    0.7,    0.8,    0.7,    0.5,    0.9,    0.7,    0.9,    0.7,    0.7,    0.5,    0.5,    0.7,    0.7,  999.0,  999.0,  999.0,  999.0,  999.0,  999.0,  999.0,  999.0,    0.1,  999.0,  999.0,  999.0,  999.0,  999.0,  999.0,  999.0,  999.0,  999.0,  999.0,  999.0,  999.0,  999.0,  999.0
2015/08/26 10:50,   -1.3,   -1.0,   -1.1,   -1.2,   -1.3,   -1.5,   -1.5,   -1.8,   -1.7,   -1.6,   -1.6,   -1.4,   -1.3,   -1.2,   -1.1,   -0.9,   -0.7,   -0.6,   -0.5,   -0.5,   -0.3,   -0.2,   -0.2,   -0.0,    0.1,    0.1,    0.1,    0.1,    0.1,   -0.0,    0.0,   -0.0,    0.1,    0.1,    0.1,    0.1,    0.2,    0.1,    0.1,    0.1,    0.1,    0.1,    0.0,   -0.1,   -0.1,   -0.0,   -0.3,   -0.2,   -0.3,   -0.2,   -0.1,   -0.3,   -0.4,   -0.3,   -0.2,   -0.1,   -0.1,    0.0,  999.0,  999.0,  999.0,   -0.0,  999.0,  999.0,    0.0,  999.0,  999.0,  999.0,  999.0,  999.0,  999.0,  999.0,  999.0,   -0.1,    0.2,  999.0,  999.0,  999.0,  999.0,  999.0
2015/08/26 11:00,   -1.2,   -1.7,   -1.6,   -1.6,   -1.6,   -1.6,   -1.6,   -1.6,   -1.5,   -1.4,   -1.3,   -1.3,   -1.2,   -1.1,   -1.1,   -0.9,   -0.7,   -0.6,   -0.5,   -0.5,   -0.3,   -0.2,   -0.2,   -0.3,   -0.1,   -0.2,   -0.0,    0.1,    0.2,    0.2,    0.2,    0.1,    0.4,    0.2,    0.3,    0.4,    0.5,    0.4,    0.5,    0.5,    0.4,    0.5,    0.4,    0.4,    0.3,   -0.1,   -0.1,   -0.0,   -0.1,   -0.2,   -0.2,   -0.5,   -0.5,   -0.5,   -0.4,  999.0,   -0.1,  999.0,  999.0,  999.0,  999.0,    0.0,    0.0,    0.0,  999.0,  999.0,  999.0,  999.0,  999.0,  999.0,  999.0,  999.0,    0.0,  999.0,    0.0,  999.0,  999.0,  999.0,  999.0,   -0.0
2015/08/26 11:10,   -0.2,   -1.3,   -1.3,   -1.2,   -1.1,   -1.0,   -1.0,   -1.0,   -1.0,   -1.0,   -0.9,   -0.8,   -0.7,   -0.5,   -0.3,   -0.2,   -0.0,   -0.1,    0.1,    0.2,    0.1,    0.2,   -0.1,   -0.1,   -0.0,    0.0,    0.1,    0.1,    0.1,    0.1,    0.2,    0.1,    0.2,    0.2,    0.2,    0.3,    0.3,    0.2,    0.2,    0.2,    0.1,    0.2,    0.2,    0.2,   -0.0,   -0.4,   -0.2,    0.2,   -0.1,   -0.1,    0.0,   -0.0,   -0.1,   -0.4,   -0.2,   -0.0,    0.0,    0.0,  999.0,    0.2,   -0.0,  999.0,  999.0,  999.0,  999.0,    0.0,  999.0,  999.0,  999.0,  999.0,  999.0,  999.0,    0.0,    0.0,   -0.0,  999.0,  999.0,  999.0,    0.1,  999.0
2015/08/26 11:20,  999.0,   -0.4,   -0.3,   -0.1,   -0.3,   -0.2,   -0.6,   -0.8,   -0.9,   -1.0,   -0.9,   -1.1,   -1.1,   -1.0,   -0.8,   -0.9,   -0.8,   -0.9,   -0.8,   -0.7,   -0.5,   -0.4,   -0.4,   -0.3,   -0.2,   -0.2,   -0.1,    0.0,   -0.1,    0.0,    0.0,    0.0,    0.2,    0.2,    0.3,    0.3,    0.2,    0.3,    0.3,    0.3,    0.4,    0.4,    0.5,    0.7,    0.5,    0.6,    0.6,  999.0,    0.2,  999.0,    0.1,  999.0,    0.6,    0.6,  999.0,    0.0,   -0.1,    0.2,  999.0,  999.0,  999.0,  999.0,  999.0,  999.0,  999.0,  999.0,  999.0,  999.0,  999.0,  999.0,  999.0,  999.0,    0.1,    0.0,    0.1,  999.0,  999.0,  999.0,  999.0,   -0.0
2015/08/26 11:30,   -0.0,   -0.2,   -0.3,   -0.6,   -1.1,   -1.2,   -1.2,   -1.1,   -1.1,   -1.0,   -0.9,   -0.8,   -0.6,   -0.5,   -0.3,   -0.2,   -0.1,   -0.1,   -0.1,   -0.0,    0.1,    0.2,   -0.0,    0.0,   -0.0,    0.0,    0.1,    0.1,    0.0,    0.1,    0.1,    0.0,    0.1,    0.3,    0.3,    0.4,    0.4,    0.4,    0.6,    0.5,    0.6,    0.7,    0.6,    0.4,    0.3,    0.3,    0.5,    0.4,    0.6,    0.2,  999.0,    0.0,   -0.1,    0.4,    0.1,  999.0,    0.1,    0.1,  999.0,  999.0,  999.0,  999.0,  999.0,    0.1,  999.0,  999.0,  999.0,  999.0,  999.0,  999.0,  999.0,   -0.0,   -0.0,    0.0,    0.0,  999.0,  999.0,  999.0,  999.0,  999.0
2015/08/26 11:40,   -0.1,   -0.1,   -0.2,   -0.2,   -0.4,   -0.7,   -0.9,   -1.0,   -0.9,   -0.8,   -0.7,   -0.6,   -0.4,   -0.5,   -0.3,   -0.2,   -0.2,   -0.1,   -0.0,    0.0,   -0.1,    0.0,   -0.0,   -0.0,   -0.1,   -0.0,    0.0,    0.0,    0.0,   -0.0,    0.1,    0.1,    0.2,    0.3,    0.3,    0.2,    0.2,    0.2,    0.4,    0.3,    0.4,    0.4,    0.4,    0.4,    0.3,    0.4,    0.1,    0.2,    0.0,   -0.0,   -0.0,   -0.0,   -0.1,   -0.0,   -0.1,   -0.0,   -0.0,    0.0,    0.0,  999.0,  999.0,    0.1,   -0.0,    0.1,    0.0,  999.0,  999.0,  999.0,  999.0,  999.0,  999.0,  999.0,    0.0,    0.0,  999.0,  999.0,  999.0,  999.0,  999.0,  999.0
2015/08/26 11:50,   -0.0,   -0.1,   -0.1,   -0.2,   -0.6,   -0.8,   -0.9,   -0.8,   -0.8,   -0.6,   -0.4,   -0.3,   -0.1,   -0.1,   -0.1,   -0.1,   -0.1,   -0.0,   -0.0,   -0.0,   -0.1,   -0.1,   -0.1,   -0.1,   -0.0,    0.0,   -0.1,   -0.1,   -0.0,   -0.1,    0.1,    0.0,    0.1,    0.2,    0.1,    0.1,    0.2,    0.1,    0.0,    0.1,    0.0,    0.1,    0.1,    0.2,    0.2,    0.1,    0.0,   -0.1,    0.1,   -0.0,   -0.0,    0.0,  999.0,   -0.0,   -0.0,   -0.0,    0.0,   -0.0,  999.0,  999.0,  999.0,  999.0,  999.0,    0.0,  999.0,  999.0,  999.0,  999.0,  999.0,  999.0,  999.0,  999.0,    0.0,    0.0,    0.0,  999.0,  999.0,  999.0,  999.0,  999.0
2015/08/26 12:00,   -0.0,   -0.1,   -0.3,   -0.7,   -0.6,   -0.5,   -0.5,   -0.5,   -0.5,   -0.3,   -0.3,   -0.2,   -0.1,   -0.2,   -0.1,   -0.1,   -0.1,   -0.1,   -0.1,   -0.1,   -0.2,   -0.2,   -0.2,   -0.3,   -0.3,   -0.3,   -0.2,   -0.2,   -0.2,   -0.1,   -0.0,   -0.0,   -0.0,   -0.0,   -0.0,    0.1,    0.2,    0.2,    0.4,    0.3,    0.2,    0.3,    0.4,    0.5,    0.4,    0.5,    0.1,    0.2,    0.3,    0.0,    0.1,    0.0,   -0.0,   -0.0,    0.0,    0.1,    0.0,    0.0,   -0.0,  999.0,  999.0,    0.0,   -0.0,   -0.0,    0.0,  999.0,  999.0,  999.0,  999.0,  999.0,  999.0,    0.0,   -0.0,    0.0,   -0.0,  999.0,  999.0,  999.0,  999.0,  999.0
2015/08/26 12:10,   -0.0,   -0.1,   -0.1,   -0.1,   -0.1,   -0.1,   -0.1,   -0.0,   -0.0,   -0.0,   -0.0,    0.0,    0.0,   -0.0,   -0.0,   -0.1,   -0.0,    0.0,   -0.0,    0.0,   -0.0,   -0.0,   -0.1,    0.0,    0.0,    0.1,    0.1,    0.1,    0.2,    0.2,    0.1,    0.2,    0.2,    0.1,    0.1,    0.2,    0.3,    0.1,    0.1,    0.3,    0.2,    0.3,    0.1,   -0.0,    0.1,    0.2,    0.5,    0.6,    0.0,    0.0,  999.0,  999.0,    0.1,  999.0,  999.0,   -0.0,  999.0,  999.0,    0.0,  999.0,  999.0,    0.0,   -0.1,  999.0,  999.0,  999.0,  999.0,  999.0,  999.0,  999.0,   -0.0,    0.1,   -0.0,    0.0,  999.0,  999.0,  999.0,  999.0,  999.0,  999.0
2015/08/26 12:20,   -0.0,   -0.1,   -0.0,   -0.0,   -0.1,   -0.1,   -0.2,   -0.2,   -0.2,   -0.1,   -0.2,   -0.2,   -0.0,   -0.0,   -0.0,   -0.0,    0.0,    0.0,   -0.0,    0.0,    0.0,    0.0,   -0.0,   -0.0,    0.0,    0.0,   -0.0,   -0.0,    0.0,    0.0,   -0.1,   -0.0,   -0.1,   -0.0,    0.0,    0.0,   -0.0,   -0.1,   -0.1,   -0.0,   -0.0,   -0.0,    0.0,   -0.0,  999.0,  999.0,    0.1,    0.0,   -0.0,  999.0,  999.0,  999.0,    0.0,    0.0,  999.0,  999.0,  999.0,  999.0,  999.0,  999.0,  999.0,  999.0,  999.0,  999.0,  999.0,  999.0,  999.0,  999.0,  999.0,  999.0,    0.0,  999.0,    0.0,   -0.0,  999.0,  999.0,  999.0,  999.0,  999.0,  999.0
2015/08/26 12:30,   -0.0,   -0.4,   -0.7,   -0.6,   -0.6,   -0.5,   -0.7,   -0.9,   -0.8,   -0.5,   -0.4,   -0.2,   -0.0,   -0.1,   -0.1,   -0.0,   -0.0,   -0.0,    0.0,    0.0,    0.1,    0.1,    0.0,    0.1,    0.0,    0.2,    0.1,    0.0,    0.1,    0.2,    0.1,    0.1,    0.1,    0.1,    0.2,    0.2,    0.2,    0.2,    0.2,    0.0,    0.0,    0.0,    0.0,   -0.0,  999.0,    0.0,   -0.0,   -0.0,    0.0,   -0.0,   -0.1,  999.0,    0.1,  999.0,   -0.0,  999.0,  999.0,  999.0,  999.0,  999.0,    0.1,  999.0,  999.0,  999.0,  999.0,  999.0,  999.0,  999.0,  999.0,  999.0,  999.0,   -0.0,   -0.0,   -0.0,   -0.0,  999.0,  999.0,  999.0,  999.0,  999.0
2015/08/26 12:40,   -0.9,   -1.8,   -1.6,   -1.4,   -0.7,   -0.5,   -0.9,   -1.0,   -0.9,   -0.8,   -0.6,   -0.4,   -0.2,   -0.2,   -0.2,   -0.1,   -0.0,   -0.0,   -0.0,    0.0,    0.0,    0.0,    0.0,    0.0,    0.0,    0.1,    0.2,    0.2,    0.1,    0.2,    0.1,    0.1,    0.0,    0.1,    0.1,    0.1,    0.0,   -0.1,   -0.0,   -0.1,    0.0,   -0.0,   -0.0,   -0.0,  999.0,  999.0,    0.0,  999.0,   -0.0,   -0.1,  999.0,    0.0,    0.0,  999.0,    0.0,  999.0,  999.0,  999.0,  999.0,   -0.0,  999.0,  999.0,  999.0,  999.0,  999.0,  999.0,  999.0,  999.0,  999.0,  999.0,  999.0,    0.0,    0.0,    0.0,  999.0,  999.0,  999.0,  999.0,  999.0,  999.0
2015/08/26 12:50,   -0.0,   -0.7,   -0.9,   -0.9,   -0.5,   -1.1,   -1.4,   -1.2,   -1.0,   -0.8,   -0.7,   -0.5,   -0.2,   -0.3,   -0.2,   -0.1,   -0.1,   -0.0,   -0.0,   -0.0,   -0.0,   -0.0,   -0.0,   -0.0,   -0.0,    0.0,    0.1,    0.1,    0.0,    0.0,    0.1,    0.1,    0.1,    0.0,    0.0,    0.1,    0.1,    0.2,   -0.0,    0.0,    0.0,    0.0,   -0.0,    0.0,    0.1,    0.0,   -0.1,   -0.0,    0.0,    0.1,    0.0,   -0.0,    0.0,   -0.0,    0.0,    0.1,   -0.1,  999.0,  999.0,  999.0,  999.0,  999.0,  999.0,  999.0,  999.0,  999.0,  999.0,  999.0,    0.1,  999.0,  999.0,    0.0,   -0.0,   -0.1,   -0.0,  999.0,  999.0,  999.0,  999.0,  999.0
2015/08/26 13:00,  999.0,   -1.4,   -1.6,   -1.6,   -1.7,   -1.6,   -1.5,   -1.4,   -1.3,   -1.2,   -1.0,   -0.8,   -0.4,   -0.3,   -0.4,   -0.3,   -0.2,   -0.2,   -0.1,   -0.1,   -0.1,   -0.0,   -0.0,   -0.1,   -0.1,   -0.0,   -0.0,    0.0,    0.0,    0.1,    0.0,    0.0,   -0.0,    0.0,    0.0,   -0.0,    0.1,    0.1,   -0.0,   -0.1,   -0.0,   -0.0,   -0.0,    0.0,    0.0,    0.0,   -0.0,   -0.0,    0.1,   -0.0,   -0.0,   -0.0,    0.0,    0.0,   -0.1,    0.1,   -0.0,  999.0,  999.0,  999.0,  999.0,  999.0,    0.0,  999.0,  999.0,  999.0,  999.0,  999.0,  999.0,  999.0,   -0.0,   -0.1,    0.0,    0.0,    0.0,  999.0,  999.0,  999.0,  999.0,  999.0
2015/08/26 13:10,  999.0,   -1.4,   -1.5,   -1.5,   -1.5,   -1.5,   -1.7,   -1.7,   -1.6,   -1.5,   -1.3,   -1.1,   -0.9,   -0.8,   -0.7,   -0.5,   -0.3,   -0.2,   -0.1,   -0.0,   -0.0,   -0.0,   -0.0,   -0.1,   -0.1,   -0.1,   -0.0,   -0.0,   -0.0,   -0.0,    0.0,   -0.0,    0.0,   -0.1,    0.1,    0.0,   -0.0,   -0.0,    0.0,   -0.1,   -0.0,   -0.0,   -0.0,   -0.0,  999.0,   -0.0,    0.0,  999.0,   -0.0,    0.0,    0.0,    0.0,    0.0,   -0.0,   -0.1,    0.1,   -0.0,  999.0,  999.0,  999.0,  999.0,  999.0,  999.0,  999.0,    0.0,  999.0,   -0.0,  999.0,  999.0,  999.0,  999.0,   -0.0,   -0.0,  999.0,    0.0,  999.0,  999.0,  999.0,  999.0,  999.0
2015/08/26 13:20,  999.0,   -1.8,   -1.7,   -1.8,   -1.8,   -1.7,   -1.7,   -1.6,   -1.5,   -1.4,   -1.2,   -1.1,   -1.0,   -0.8,   -0.6,   -0.4,   -0.2,   -0.1,   -0.1,   -0.0,   -0.1,   -0.1,   -0.2,   -0.2,   -0.2,   -0.2,   -0.2,   -0.2,   -0.2,   -0.2,   -0.1,   -0.0,   -0.0,  999.0,   -0.0,   -0.0,   -0.0,   -0.0,   -0.0,   -0.2,   -0.0,   -0.0,   -0.0,    0.0,   -0.0,    0.0,   -0.1,    0.0,   -0.0,    0.0,   -0.0,    0.0,    0.0,   -0.1,    0.0,    0.0,    0.0,   -0.0,  999.0,  999.0,  999.0,  999.0,  999.0,   -0.0,   -0.0,  999.0,  999.0,    0.0,  999.0,  999.0,  999.0,   -0.0,   -0.0,    0.0,    0.0,  999.0,  999.0,  999.0,  999.0,  999.0
2015/08/26 13:30,  999.0,   -1.6,   -1.7,   -1.6,   -1.6,   -1.7,   -1.6,   -1.5,   -1.4,   -1.3,   -1.2,   -1.1,   -0.8,   -0.8,   -0.6,   -0.4,   -0.2,   -0.2,   -0.1,   -0.1,   -0.1,   -0.2,   -0.2,   -0.4,   -0.3,   -0.3,   -0.2,   -0.2,   -0.1,   -0.0,    0.0,    0.0,    0.0,    0.1,    0.1,   -0.0,    0.0,    0.1,   -0.0,   -0.1,    0.0,    0.0,   -0.0,    0.0,  999.0,  999.0,    0.1,  999.0,   -0.0,    0.1,   -0.0,    0.0,    0.0,    0.1,   -0.1,    0.0,  999.0,   -0.1,  999.0,  999.0,  999.0,  999.0,  999.0,  999.0,  999.0,  999.0,  999.0,  999.0,  999.0,  999.0,  999.0,  999.0,   -0.0,    0.0,   -0.1,  999.0,  999.0,  999.0,  999.0,  999.0
2015/08/26 13:40,  999.0,   -1.8,   -1.7,   -1.6,   -1.6,   -1.6,   -1.6,   -1.4,   -1.4,   -1.2,   -1.1,   -1.0,   -0.8,   -0.8,   -0.7,   -0.5,   -0.4,   -0.2,   -0.1,   -0.1,   -0.2,   -0.3,   -0.2,   -0.3,   -0.2,   -0.2,   -0.2,   -0.2,   -0.1,   -0.1,   -0.0,   -0.0,   -0.0,   -0.0,   -0.1,    0.0,   -0.0,   -0.0,   -0.0,   -0.1,   -0.1,    0.0,  999.0,    0.1,  999.0,    0.0,  999.0,   -0.0,    0.0,    0.0,   -0.0,   -0.0,    0.0,   -0.0,   -0.1,  999.0,  999.0,   -0.0,  999.0,  999.0,  999.0,  999.0,  999.0,  999.0,  999.0,  999.0,  999.0,   -0.0,  999.0,  999.0,  999.0,    0.0,   -0.0,   -0.0,    0.0,  999.0,  999.0,  999.0,  999.0,  999.0
2015/08/26 13:50,   -1.8,   -1.7,   -1.5,   -1.4,   -1.4,   -1.4,   -1.4,   -1.4,   -1.3,   -1.3,   -1.2,   -1.1,   -1.0,   -0.9,   -0.7,   -0.6,   -0.4,   -0.3,   -0.1,   -0.1,   -0.0,   -0.1,   -0.2,   -0.2,   -0.1,   -0.1,   -0.1,    0.0,    0.0,    0.0,   -0.0,   -0.0,   -0.0,    0.0,    0.0,   -0.0,   -0.0,   -0.1,   -0.1,   -0.1,   -0.1,   -0.1,   -0.1,   -0.0,   -0.0,   -0.2,   -0.1,   -0.0,   -0.0,  999.0,   -0.1,   -0.1,    0.0,   -0.1,    0.0,    0.0,  999.0,  999.0,  999.0,  999.0,  999.0,  999.0,  999.0,  999.0,  999.0,  999.0,  999.0,  999.0,  999.0,  999.0,  999.0,   -0.0,    0.0,    0.0,   -0.0,  999.0,  999.0,  999.0,  999.0,  999.0
2015/08/26 14:00,   -0.1,   -0.6,   -0.7,   -0.7,   -0.9,   -1.2,   -1.2,   -1.0,   -1.0,   -1.1,   -1.1,   -1.0,   -0.8,   -0.7,   -0.5,   -0.3,   -0.2,   -0.1,   -0.1,   -0.1,   -0.0,   -0.0,   -0.1,   -0.1,   -0.0,    0.0,   -0.0,   -0.0,   -0.1,   -0.1,   -0.0,   -0.0,   -0.0,   -0.1,   -0.1,    0.1,    0.2,    0.3,    0.2,    0.3,    0.4,    0.3,    0.2,   -0.0,    0.0,    0.1,    0.0,    0.0,    0.2,    0.4,    0.3,    0.1,   -0.0,   -0.0,    0.1,    0.0,  999.0,  999.0,   -0.1,  999.0,  999.0,  999.0,  999.0,  999.0,  999.0,  999.0,  999.0,  999.0,  999.0,  999.0,  999.0,  999.0,   -0.1,    0.0,  999.0,  999.0,  999.0,   -0.1,  999.0,  999.0
2015/08/26 14:10,   -0.0,   -0.6,   -0.5,   -0.7,   -0.9,   -1.0,   -1.1,   -1.0,   -1.0,   -0.9,   -0.9,   -0.9,   -0.7,   -0.6,   -0.4,   -0.2,   -0.2,   -0.1,   -0.0,   -0.0,   -0.1,   -0.2,   -0.2,   -0.2,   -0.2,   -0.2,   -0.1,   -0.1,    0.0,    0.0,    0.0,   -0.0,   -0.0,    0.0,  999.0,    0.1,    0.2,    0.2,    0.2,    0.1,    0.0,    0.0,    0.0,    0.0,    0.0,    0.1,    0.0,    0.1,   -0.0,    0.0,    0.0,    0.0,    0.0,    0.0,   -0.0,  999.0,   -0.0,   -0.2,  999.0,  999.0,  999.0,  999.0,  999.0,  999.0,  999.0,  999.0,  999.0,  999.0,  999.0,  999.0,  999.0,  999.0,    0.0,   -0.1,  999.0,  999.0,  999.0,  999.0,  999.0,  999.0
2015/08/26 14:20,   -0.1,   -1.0,   -1.0,   -1.2,   -1.0,   -1.0,   -1.0,   -0.9,   -0.9,   -0.8,   -0.7,   -0.7,   -0.6,   -0.5,   -0.3,   -0.2,   -0.1,   -0.1,   -0.0,   -0.1,   -0.1,   -0.2,   -0.2,   -0.4,   -0.2,   -0.2,   -0.1,   -0.0,   -0.1,   -0.0,   -0.0,    0.0,   -0.1,  999.0,   -0.0,    0.0,   -0.0,    0.3,   -0.0,   -0.1,   -0.0,    0.0,    0.1,    0.1,    0.2,    0.3,    0.3,    0.3,  999.0,   -0.0,    0.1,    0.2,    0.1,  999.0,  999.0,  999.0,    0.0,    0.1,   -0.1,  999.0,  999.0,  999.0,  999.0,  999.0,  999.0,  999.0,  999.0,  999.0,  999.0,  999.0,  999.0,  999.0,  999.0,   -0.0,  999.0,  999.0,  999.0,  999.0,  999.0,  999.0
2015/08/26 14:30,   -0.2,   -1.4,   -1.4,   -1.3,   -1.3,   -1.3,   -1.3,   -1.1,   -1.0,   -0.9,   -0.9,   -0.8,   -0.6,   -0.4,   -0.3,   -0.1,   -0.1,    0.0,    0.1,    0.1,    0.0,    0.0,    0.0,   -0.1,    0.0,    0.0,    0.2,    0.2,   -0.0,    0.1,    0.1,    0.0,    0.1,  999.0,   -0.0,   -0.1,    0.1,    0.0,    0.2,   -0.1,    0.1,   -0.0,  999.0,    0.3,    0.5,    0.4,    0.3,    0.3,    0.2,    0.2,    0.1,    0.2,    0.0,   -0.0,   -0.1,  999.0,   -0.2,   -0.2,  999.0,  999.0,  999.0,    0.1,  999.0,  999.0,  999.0,  999.0,  999.0,  999.0,  999.0,  999.0,  999.0,  999.0,   -0.0,   -0.0,  999.0,  999.0,  999.0,  999.0,  999.0,  999.0
2015/08/26 14:40,   -0.2,   -1.0,   -0.9,   -1.0,   -1.0,   -0.9,   -1.1,   -1.0,   -0.9,   -0.9,   -0.8,   -0.6,   -0.4,   -0.3,   -0.2,   -0.1,   -0.0,   -0.0,   -0.0,    0.0,    0.0,   -0.1,   -0.1,   -0.0,   -0.0,   -0.0,    0.0,    0.0,    0.0,    0.1,    0.0,    0.0,    0.1,    0.1,    0.1,    0.1,  999.0,    0.0,    0.0,   -0.2,    0.0,    0.1,    0.1,    0.0,    0.0,  999.0,    0.1,    0.1,   -0.1,   -0.1,   -0.2,  999.0,    0.0,   -0.0,  999.0,   -0.1,   -0.3,   -0.1,  999.0,  999.0,  999.0,    0.0,  999.0,  999.0,   -0.0,  999.0,  999.0,  999.0,  999.0,  999.0,  999.0,  999.0,   -0.0,    0.0,  999.0,  999.0,  999.0,  999.0,  999.0,  999.0
2015/08/26 14:50,   -0.1,   -1.3,   -1.1,   -0.8,   -1.0,   -1.0,   -1.2,   -1.0,   -1.0,   -0.9,   -0.7,   -0.6,   -0.4,   -0.3,   -0.2,   -0.1,   -0.0,    0.0,   -0.0,   -0.0,   -0.0,   -0.0,   -0.1,    0.1,    0.0,    0.0,    0.0,    0.1,   -0.0,    0.0,   -0.0,    0.0,    0.2,    0.2,    0.0,   -0.0,    0.2,  999.0,    0.0,   -0.2,    0.1,    0.4,    0.3,    0.1,  999.0,  999.0,    0.0,    0.2,    0.3,    0.1,    0.2,    0.2,   -0.0,  999.0,  999.0,    0.1,    0.0,   -0.1,  999.0,  999.0,  999.0,  999.0,  999.0,  999.0,  999.0,  999.0,  999.0,  999.0,  999.0,  999.0,  999.0,  999.0,   -0.0,    0.0,  999.0,  999.0,  999.0,  999.0,  999.0,  999.0
2015/08/26 15:00,   -0.1,   -0.8,   -0.5,   -0.6,   -0.9,   -1.0,   -1.1,   -1.1,   -1.1,   -1.0,   -1.0,   -0.9,   -0.8,   -0.7,   -0.6,   -0.4,   -0.4,   -0.3,   -0.1,   -0.2,   -0.3,   -0.5,   -0.5,   -0.3,   -0.3,   -0.3,   -0.2,   -0.2,   -0.2,   -0.1,   -0.1,   -0.1,   -0.1,   -0.0,   -0.0,   -0.0,   -0.0,    0.0,    0.1,   -0.2,   -0.0,   -0.0,   -0.0,   -0.0,    0.0,    0.1,    0.1,    0.0,    0.1,    0.1,    0.1,    0.1,  999.0,  999.0,    0.1,    0.1,    0.1,    0.1,  999.0,  999.0,  999.0,  999.0,  999.0,  999.0,  999.0,  999.0,  999.0,  999.0,  999.0,  999.0,  999.0,  999.0,  999.0,  999.0,  999.0,  999.0,  999.0,  999.0,  999.0,  999.0
2015/08/26 15:10,   -0.0,   -0.2,   -0.4,   -0.5,   -0.6,   -0.8,   -0.9,   -0.9,   -0.9,   -0.9,   -0.8,   -0.7,   -0.5,   -0.5,   -0.3,   -0.2,   -0.2,   -0.1,   -0.1,   -0.1,   -0.1,   -0.3,   -0.2,   -0.2,   -0.1,   -0.1,   -0.2,   -0.0,   -0.0,   -0.1,   -0.0,    0.0,    0.0,    0.1,    0.1,    0.2,    0.0,    0.2,   -0.0,   -0.1,    0.1,    0.2,    0.5,    0.2,  999.0,    0.0,    0.0,    0.0,    0.0,   -0.0,    0.2,    0.1,   -0.0,  999.0,    0.0,   -0.1,   -0.0,  999.0,  999.0,  999.0,  999.0,  999.0,  999.0,  999.0,  999.0,  999.0,  999.0,  999.0,  999.0,  999.0,  999.0,  999.0,  999.0,    0.0,  999.0,  999.0,  999.0,  999.0,  999.0,  999.0
2015/08/26 15:20,   -0.0,   -0.2,   -0.4,   -0.6,   -0.8,   -1.0,   -1.1,   -1.1,   -1.0,   -1.0,   -1.0,   -0.8,   -0.6,   -0.5,   -0.3,   -0.3,   -0.3,   -0.1,   -0.0,   -0.1,   -0.1,   -0.3,   -0.4,   -0.0,   -0.1,    0.0,    0.0,    0.1,    0.2,    0.1,    0.0,   -0.0,    0.1,    0.3,    0.2,    0.3,    0.3,    0.1,  999.0,    0.3,    0.1,    0.1,    0.0,  999.0,  999.0,  999.0,    0.3,    0.2,    0.1,    0.2,    0.4,    0.4,    0.3,  999.0,    0.0,    0.0,    0.0,  999.0,    0.1,  999.0,  999.0,  999.0,  999.0,  999.0,  999.0,  999.0,  999.0,  999.0,  999.0,  999.0,  999.0,  999.0,    0.0,    0.0,  999.0,  999.0,  999.0,  999.0,  999.0,  999.0
2015/08/26 15:30,   -0.0,   -0.2,   -0.3,   -0.5,   -0.5,   -1.0,   -1.1,   -1.1,   -1.1,   -1.1,   -1.1,   -1.0,   -0.7,   -0.7,   -0.6,   -0.4,   -0.6,   -0.3,   -0.2,   -0.3,   -0.3,   -0.6,   -0.6,   -0.4,   -0.1,   -0.2,   -0.2,   -0.2,    0.0,   -0.0,    0.0,    0.0,    0.1,    0.4,    0.1,    0.4,    0.1,    0.0,    0.0,   -0.1,    0.1,    0.0,   -0.0,    0.4,    0.3,  999.0,    0.0,    0.0,    0.0,    0.9,  999.0,    0.5,    0.2,    0.2,    0.1,    0.0,    0.0,  999.0,   -0.1,  999.0,  999.0,  999.0,  999.0,  999.0,  999.0,  999.0,  999.0,  999.0,  999.0,  999.0,  999.0,    0.0,    0.0,    0.0,  999.0,  999.0,  999.0,  999.0,  999.0,  999.0
2015/08/26 15:40,   -0.0,   -0.0,   -0.2,   -0.2,   -0.2,   -0.3,   -0.6,   -0.6,   -0.8,   -0.9,   -0.9,   -0.7,   -0.5,   -0.5,   -0.3,   -0.4,   -0.3,   -0.3,   -0.3,   -0.4,   -0.6,   -0.8,   -0.7,   -0.7,   -0.2,   -0.2,   -0.3,   -0.3,   -0.3,   -0.0,   -0.0,    0.0,    0.0,    0.1,    0.0,    0.2,    0.0,    0.0,    0.0,   -0.1,    0.0,    0.1,    0.0,    0.2,    0.4,    0.3,    0.1,    0.2,    0.1,    0.2,    0.1,    0.0,    0.1,    0.3,    0.0,    0.2,    0.1,    0.0,  999.0,  999.0,  999.0,  999.0,  999.0,  999.0,  999.0,  999.0,  999.0,  999.0,  999.0,  999.0,  999.0,  999.0,   -0.0,   -0.0,  999.0,  999.0,  999.0,  999.0,  999.0,  999.0
2015/08/26 15:50,   -0.0,   -0.2,   -0.1,   -0.1,   -0.1,   -0.2,   -0.3,   -0.3,   -0.3,   -0.6,   -0.5,   -0.4,   -0.3,   -0.3,   -0.2,   -0.2,   -0.2,   -0.2,   -0.3,   -0.4,   -0.4,   -0.5,   -0.5,   -0.4,   -0.2,   -0.2,   -0.1,   -0.1,   -0.1,   -0.0,   -0.0,   -0.0,    0.0,    0.1,   -0.0,    0.0,    0.0,   -0.0,    0.0,   -0.1,    0.0,    0.1,    0.1,    0.0,    0.3,    0.5,    0.2,    0.4,    0.5,    0.4,    0.1,    0.2,    0.0,    0.0,    0.0,    0.1,   -0.1,   -0.2,   -0.0,  999.0,  999.0,  999.0,  999.0,  999.0,  999.0,  999.0,  999.0,  999.0,  999.0,  999.0,  999.0,   -0.0,   -0.0,   -0.0,  999.0,  999.0,  999.0,  999.0,  999.0,  999.0
2015/08/26 16:00,   -0.0,   -0.0,   -0.0,   -0.1,   -0.1,   -0.4,   -0.5,   -0.5,   -0.6,   -0.7,   -0.6,   -0.3,   -0.3,   -0.7,   -0.3,   -0.2,   -0.1,   -0.1,   -0.0,   -0.0,   -0.1,   -0.1,   -0.1,   -0.2,   -0.1,   -0.0,   -0.0,    0.0,    0.0,   -0.0,    0.0,    0.0,    0.1,    0.0,    0.1,    0.3,   -0.0,   -0.0,   -0.0,   -0.0,    0.0,   -0.0,    0.0,   -0.0,  999.0,    0.4,    0.5,    0.2,    0.4,    0.5,    0.2,    0.4,    0.2,  999.0,    0.0,  999.0,  999.0,   -0.1,    0.0,   -0.0,  999.0,  999.0,  999.0,  999.0,  999.0,  999.0,  999.0,  999.0,  999.0,  999.0,  999.0,  999.0,   -0.0,  999.0,  999.0,  999.0,  999.0,  999.0,  999.0,  999.0
2015/08/26 16:10,   -0.0,   -0.2,   -0.2,   -0.1,   -0.1,   -0.1,   -0.1,   -0.1,   -0.1,   -0.1,   -0.1,   -0.0,    0.0,   -0.0,   -0.0,   -0.0,   -0.0,    0.0,   -0.0,   -0.0,   -0.1,   -0.1,   -0.1,   -0.0,    0.0,    0.0,    0.1,    0.1,    0.1,    0.1,    0.2,    0.1,    0.0,    0.0,    0.2,    0.1,    0.0,    0.0,  999.0,   -0.1,    0.0,   -0.0,   -0.0,    0.0,    0.0,    0.1,    0.3,    0.3,    0.5,    0.5,    0.1,    0.1,    0.1,  999.0,   -0.1,    0.1,  999.0,   -0.3,   -0.2,  999.0,  999.0,  999.0,  999.0,  999.0,  999.0,  999.0,  999.0,  999.0,  999.0,  999.0,  999.0,  999.0,   -0.0,    0.0,    0.0,  999.0,  999.0,  999.0,  999.0,  999.0
2015/08/26 16:20,   -0.0,   -0.1,   -0.2,   -0.2,   -0.3,   -0.5,   -0.4,   -0.4,   -0.3,   -0.2,   -0.1,   -0.0,   -0.0,   -0.0,   -0.0,   -0.0,   -0.0,   -0.0,   -0.0,   -0.0,   -0.0,   -0.0,   -0.1,   -0.1,   -0.2,   -0.1,    0.0,    0.0,    0.1,    0.1,    0.2,    0.1,    0.0,    0.2,    0.2,  999.0,    0.0,    0.0,    0.0,   -0.0,    0.0,    0.1,    0.0,    0.0,   -0.0,    0.1,    0.2,    0.3,    0.2,    0.3,    0.2,    0.2,    0.1,    0.0,    0.0,  999.0,  999.0,  999.0,  999.0,  999.0,  999.0,  999.0,  999.0,  999.0,  999.0,  999.0,  999.0,  999.0,  999.0,  999.0,  999.0,  999.0,   -0.0,    0.1,  999.0,  999.0,  999.0,  999.0,  999.0,  999.0
2015/08/26 16:30,   -0.0,   -0.2,   -0.2,   -0.6,   -0.5,   -0.7,   -0.7,   -0.6,   -0.3,   -0.2,   -0.1,   -0.0,    0.0,    0.0,   -0.0,    0.0,    0.0,   -0.0,   -0.0,   -0.0,   -0.1,   -0.1,   -0.1,   -0.1,   -0.1,    0.0,   -0.0,    0.0,    0.1,    0.1,    0.0,    0.0,    0.0,    0.1,    0.1,   -0.0,    0.0,   -0.0,   -0.0,   -0.1,    0.0,    0.0,    0.0,    0.0,   -0.0,   -0.0,    0.1,    0.0,    0.1,    0.0,    0.1,   -0.0,   -0.0,    0.0,  999.0,   -0.0,    0.0,  999.0,  999.0,  999.0,  999.0,  999.0,  999.0,  999.0,  999.0,  999.0,  999.0,  999.0,  999.0,  999.0,  999.0,  999.0,    0.0,   -0.0,    0.0,  999.0,  999.0,  999.0,  999.0,  999.0
2015/08/26 16:40,   -0.0,   -0.1,   -0.2,   -0.3,   -0.6,   -0.8,   -0.7,   -0.5,   -0.2,   -0.2,   -0.1,   -0.1,   -0.2,   -0.1,   -0.2,   -0.2,   -0.1,   -0.1,   -0.0,   -0.1,   -0.1,   -0.2,   -0.2,   -0.2,   -0.2,   -0.1,   -0.0,   -0.1,   -0.2,   -0.2,   -0.1,    0.0,   -0.0,    0.0,   -0.0,   -0.0,   -0.0,    0.1,    0.0,   -0.2,    0.0,    0.0,    0.1,   -0.0,   -0.0,    0.0,    0.1,    0.0,    0.0,   -0.0,    0.1,    0.0,    0.0,   -0.0,   -0.0,   -0.0,   -0.1,   -0.1,   -0.0,   -0.0,    0.0,    0.0,  999.0,  999.0,   -0.0,  999.0,  999.0,  999.0,  999.0,  999.0,   -0.0,    0.1,    0.0,   -0.0,  999.0,  999.0,  999.0,  999.0,  999.0,  999.0
2015/08/26 16:50,   -0.0,   -0.0,   -0.1,   -0.4,   -0.3,   -0.6,   -1.0,   -0.9,   -0.8,   -0.7,   -0.6,   -0.4,   -0.2,   -0.2,   -0.1,   -0.1,   -0.0,   -0.0,   -0.0,   -0.0,   -0.1,   -0.1,   -0.1,   -0.0,   -0.0,   -0.0,    0.0,    0.0,    0.0,    0.0,    0.0,   -0.0,    0.0,    0.3,    0.2,    0.3,    0.1,    0.0,    0.0,   -0.1,    0.0,    0.0,    0.0,   -0.0,    0.1,    0.0,    0.0,    0.0,    0.1,    0.0,   -0.0,    0.1,    0.0,    0.0,    0.0,    0.0,   -0.0,   -0.1,   -0.0,   -0.0,   -0.0,    0.0,  999.0,  999.0,    0.0,  999.0,  999.0,   -0.0,   -0.0,  999.0,    0.0,    0.0,  999.0,  999.0,   -0.1,  999.0,  999.0,  999.0,  999.0,  999.0
2015/08/26 17:00,  999.0,   -0.8,   -1.2,   -1.3,   -1.1,   -1.2,   -1.3,   -1.1,   -1.0,   -0.8,   -0.7,   -0.6,   -0.5,   -0.5,   -0.3,   -0.2,   -0.1,   -0.1,   -0.0,   -0.1,   -0.1,   -0.2,   -0.3,   -0.2,   -0.1,   -0.1,   -0.0,   -0.0,   -0.0,   -0.1,   -0.1,   -0.0,   -0.0,   -0.2,   -0.2,   -0.2,   -0.2,   -0.2,   -0.1,   -0.1,   -0.0,    0.0,   -0.1,    0.1,   -0.1,   -0.0,   -0.0,    0.0,   -0.0,   -0.1,   -0.1,   -0.1,   -0.1,   -0.0,    0.0,    0.0,   -0.0,    0.0,   -0.0,   -0.0,  999.0,    0.0,    0.0,   -0.0,   -0.0,   -0.0,   -0.1,    0.0,  999.0,  999.0,  999.0,    0.1,    0.1,  999.0,   -0.0,  999.0,  999.0,  999.0,  999.0,  999.0
2015/08/26 17:10,  999.0,   -1.5,   -1.5,   -1.4,   -1.4,   -1.3,   -1.3,   -1.2,   -0.8,   -0.7,   -0.5,   -0.3,   -0.1,   -0.1,   -0.0,   -0.0,   -0.0,   -0.0,   -0.0,   -0.0,   -0.1,   -0.1,   -0.2,   -0.0,   -0.0,   -0.0,   -0.0,   -0.0,   -0.1,   -0.1,   -0.0,   -0.0,   -0.0,   -0.1,    0.1,   -0.0,   -0.0,   -0.1,   -0.1,   -0.1,   -0.0,   -0.1,   -0.0,   -0.0,   -0.1,    0.0,   -0.1,   -0.1,   -0.0,    0.0,    0.0,    0.0,    0.1,    0.0,    0.0,   -0.1,   -0.1,   -0.0,    0.0,    0.0,   -0.0,    0.0,   -0.0,    0.0,   -0.0,    0.0,    0.0,   -0.0,   -0.0,  999.0,  999.0,  999.0,    0.0,    0.0,   -0.0,  999.0,  999.0,  999.0,  999.0,  999.0
2015/08/26 17:20,    0.0,   -0.7,   -0.7,   -1.1,   -1.1,   -1.2,   -1.2,   -0.9,   -0.6,   -0.4,   -0.2,   -0.2,   -0.1,   -0.1,   -0.0,    0.0,    0.0,    0.0,    0.0,    0.0,    0.0,    0.0,    0.1,    0.0,    0.0,   -0.0,    0.0,    0.0,   -0.0,   -0.0,   -0.0,   -0.0,   -0.0,   -0.1,   -0.0,   -0.1,   -0.0,   -0.1,   -0.2,   -0.1,   -0.0,    0.1,    0.0,   -0.1,   -0.0,   -0.0,   -0.0,   -0.1,   -0.1,   -0.1,   -0.1,   -0.0,   -0.1,   -0.1,    0.0,    0.0,  999.0,   -0.0,   -0.0,    0.0,   -0.0,    0.0,    0.0,   -0.0,    0.0,   -0.0,   -0.0,   -0.0,    0.0,  999.0,  999.0,   -0.0,   -0.0,    0.0,   -0.1,  999.0,  999.0,  999.0,  999.0,  999.0
2015/08/26 17:30,   -0.0,   -0.8,   -1.0,   -1.2,   -0.9,   -0.9,   -1.0,   -0.8,   -0.8,   -0.4,   -0.5,   -0.3,   -0.1,   -0.3,   -0.2,   -0.1,   -0.1,   -0.1,   -0.0,   -0.0,   -0.0,   -0.0,   -0.1,   -0.0,   -0.0,   -0.0,   -0.1,   -0.0,   -0.1,   -0.1,    0.0,   -0.0,   -0.1,   -0.5,   -0.4,   -0.4,   -0.4,   -0.4,   -0.4,   -0.4,   -0.0,   -0.0,   -0.1,   -0.1,   -0.1,   -0.0,   -0.0,    0.1,    0.1,    0.1,    0.1,    0.0,   -0.0,   -0.0,   -0.0,   -0.0,   -0.0,   -0.0,   -0.0,    0.0,    0.0,  999.0,   -0.0,    0.0,   -0.0,    0.1,   -0.0,   -0.0,  999.0,  999.0,    0.0,  999.0,    0.0,    0.1,    0.0,  999.0,  999.0,  999.0,  999.0,  999.0
2015/08/26 17:40,  999.0,   -0.9,   -1.4,   -1.3,   -1.3,   -1.3,   -1.6,   -1.5,   -1.4,   -1.3,   -1.3,   -1.1,   -0.9,   -0.9,   -0.7,   -0.5,   -0.3,   -0.2,   -0.1,   -0.1,    0.0,    0.1,    0.1,    0.0,   -0.1,   -0.1,   -0.0,   -0.0,    0.0,   -0.0,   -0.1,   -0.0,   -0.1,   -0.3,   -0.2,   -0.2,   -0.2,   -0.3,   -0.3,   -0.2,    0.0,   -0.0,   -0.1,   -0.0,   -0.1,   -0.1,   -0.1,   -0.1,   -0.1,   -0.1,   -0.0,   -0.0,   -0.0,   -0.0,    0.0,    0.0,   -0.2,   -0.0,   -0.0,    0.0,   -0.0,    0.0,  999.0,   -0.0,    0.0,    0.0,    0.0,   -0.1,   -0.0,    0.2,   -0.0,   -0.0,  999.0,   -0.2,   -0.0,  999.0,  999.0,  999.0,  999.0,  999.0
2015/08/26 17:50,  999.0,   -2.1,   -2.0,   -2.0,   -2.0,   -1.9,   -1.9,   -1.8,   -1.5,   -1.3,   -0.9,   -0.6,   -0.3,   -0.2,   -0.1,   -0.1,   -0.0,   -0.0,   -0.0,   -0.0,   -0.0,   -0.0,    0.0,   -0.1,   -0.1,   -0.1,   -0.0,   -0.0,    0.1,    0.0,   -0.0,   -0.0,   -0.0,   -0.1,    0.1,    0.0,   -0.0,   -0.0,   -0.0,   -0.2,    0.0,   -0.0,   -0.1,   -0.1,   -0.1,   -0.1,    0.1,    0.1,    0.0,    0.1,    0.0,    0.0,    0.0,   -0.0,   -0.0,    0.0,   -0.0,   -0.1,    0.0,    0.1,    0.1,   -0.1,  999.0,   -0.0,    0.1,   -0.0,   -0.0,   -0.0,    0.1,  999.0,  999.0,   -0.1,    0.0,   -0.0,   -0.0,  999.0,  999.0,  999.0,  999.0,  999.0
2015/08/26 18:00,  999.0,   -1.4,   -1.3,   -1.3,   -1.3,   -1.3,   -1.2,   -1.2,   -1.0,   -1.0,   -0.7,   -0.7,   -0.7,   -0.9,   -0.8,   -0.9,   -0.7,   -0.5,   -0.3,   -0.3,   -0.2,   -0.1,   -0.1,   -0.1,   -0.0,   -0.1,   -0.1,   -0.0,   -0.1,    0.0,   -0.0,    0.0,   -0.1,   -0.1,   -0.1,   -0.0,   -0.1,   -0.1,   -0.1,   -0.1,   -0.1,   -0.2,   -0.2,    0.0,   -0.2,   -0.1,   -0.1,   -0.1,   -0.1,   -0.0,   -0.1,    0.0,    0.0,    0.0,    0.0,   -0.0,    0.0,   -0.0,   -0.0,  999.0,    0.1,   -0.0,    0.0,    0.0,    0.1,    0.0,   -0.0,    0.0,   -0.0,  999.0,  999.0,  999.0,   -0.0,   -0.0,   -0.0,  999.0,    0.1,  999.0,  999.0,  999.0
2015/08/26 18:10,  999.0,   -1.5,   -1.6,   -1.7,   -1.5,   -1.8,   -1.8,   -1.7,   -1.7,   -1.6,   -1.5,   -1.3,   -1.1,   -1.0,   -0.7,   -0.4,   -0.3,   -0.3,   -0.1,   -0.1,   -0.0,   -0.1,   -0.1,   -0.1,   -0.0,   -0.1,   -0.2,   -0.1,   -0.1,   -0.1,   -0.1,   -0.1,   -0.1,   -0.1,   -0.2,   -0.2,   -0.1,   -0.2,   -0.2,   -0.1,   -0.0,   -0.1,   -0.0,   -0.0,   -0.1,   -0.0,   -0.1,   -0.1,   -0.2,   -0.1,   -0.0,   -0.0,    0.0,    0.0,   -0.1,   -0.0,    0.0,   -0.0,    0.0,   -0.0,   -0.0,   -0.0,    0.1,   -0.0,   -0.0,    0.0,  999.0,   -0.0,    0.0,  999.0,  999.0,   -0.1,   -0.0,   -0.1,  999.0,  999.0,  999.0,  999.0,  999.0,  999.0
2015/08/26 18:20,  999.0,   -1.4,   -1.4,   -1.4,   -1.3,   -1.4,   -1.3,   -1.0,   -0.8,   -0.8,   -0.9,   -0.7,   -0.3,   -0.4,   -0.5,   -0.4,   -0.3,   -0.1,   -0.1,   -0.1,   -0.0,   -0.0,   -0.0,   -0.0,    0.0,   -0.0,   -0.0,   -0.0,   -0.0,   -0.0,   -0.0,   -0.0,   -0.0,    0.0,   -0.0,   -0.1,   -0.2,   -0.1,    0.1,   -0.0,   -0.0,   -0.0,    0.0,   -0.0,   -0.1,   -0.2,   -0.1,   -0.1,   -0.0,   -0.0,    0.0,    0.1,    0.1,    0.0,  999.0,    0.0,   -0.0,    0.0,    0.0,  999.0,   -0.2,    0.0,    0.0,   -0.0,    0.1,   -0.0,    0.1,    0.1,   -0.0,  999.0,  999.0,   -0.0,   -0.0,    0.0,  999.0,  999.0,  999.0,  999.0,  999.0,  999.0
2015/08/26 18:30,    0.0,   -0.5,   -0.7,   -0.8,   -0.8,   -0.6,   -1.1,  999.0,   -0.8,   -0.7,   -0.8,   -0.8,   -0.4,   -0.6,   -0.2,   -0.1,   -0.0,   -0.1,   -0.0,   -0.0,   -0.1,   -0.0,   -0.0,   -0.0,   -0.0,   -0.0,    0.0,    0.0,    0.1,    0.1,   -0.0,   -0.1,   -0.2,   -0.2,   -0.1,   -0.1,   -0.0,   -0.1,   -0.1,   -0.1,   -0.0,   -0.0,    0.1,    0.0,    0.1,    0.0,    0.0,   -0.0,    0.1,   -0.0,    0.0,   -0.0,   -0.1,    0.0,    0.0,   -0.0,    0.0,   -0.0,   -0.1,   -0.0,  999.0,   -0.1,   -0.0,   -0.0,   -0.0,   -0.0,   -0.0,    0.0,   -0.0,  999.0,   -0.0,   -0.1,    0.0,  999.0,  999.0,  999.0,  999.0,  999.0,  999.0,  999.0
2015/08/26 18:40,   -0.0,   -0.7,   -0.9,   -1.0,   -0.7,  999.0,  999.0,  999.0,   -1.5,   -1.2,   -1.2,   -0.9,   -0.5,   -0.3,   -0.1,   -0.1,   -0.0,    0.0,    0.0,   -0.0,   -0.0,    0.0,    0.1,    0.1,    0.0,    0.0,   -0.1,   -0.1,   -0.2,   -0.2,   -0.1,   -0.1,   -0.1,   -0.0,   -0.0,    0.0,    0.0,    0.0,    0.1,    0.1,    0.0,    0.1,    0.1,    0.1,    0.2,    0.2,    0.0,    0.2,    0.2,    0.1,   -0.0,    0.1,    0.0,   -0.0,   -0.0,   -0.0,    0.0,    0.0,  999.0,   -0.0,   -0.0,   -0.1,    0.0,   -0.0,   -0.1,   -0.0,    0.1,  999.0,    0.0,  999.0,  999.0,   -0.0,   -0.0,    0.0,  999.0,  999.0,  999.0,  999.0,  999.0,  999.0
2015/08/26 18:50,   -2.1,   -2.1,   -1.9,   -1.9,   -1.9,   -1.8,   -1.6,   -1.5,   -1.4,   -1.2,   -1.0,   -0.8,   -0.2,   -0.1,   -0.0,    0.0,   -0.0,    0.0,   -0.0,    0.0,    0.0,    0.0,    0.0,    0.1,    0.1,    0.0,   -0.3,   -0.3,   -0.3,   -0.2,   -0.1,   -0.1,   -0.2,   -0.1,   -0.1,    0.0,    0.0,    0.1,    0.1,    0.1,    0.0,    0.0,   -0.0,    0.0,    0.1,    0.1,    0.0,    0.1,    0.1,   -0.0,    0.0,   -0.0,    0.0,    0.1,    0.0,    0.0,   -0.0,    0.0,    0.1,   -0.0,    0.0,   -0.0,    0.0,   -0.0,    0.0,    0.0,    0.0,    0.0,    0.0,  999.0,  999.0,   -0.0,   -0.0,    0.0,  999.0,  999.0,  999.0,  999.0,  999.0,  999.0
2015/08/26 19:00,  999.0,   -1.4,   -1.4,   -1.4,   -1.4,   -1.4,   -1.4,   -1.4,   -1.2,   -1.1,   -0.7,   -0.6,   -0.4,   -0.2,   -0.1,   -0.1,   -0.1,   -0.0,   -0.0,   -0.0,   -0.0,   -0.0,   -0.0,   -0.0,    0.0,    0.0,   -0.0,   -0.0,   -0.1,   -0.1,   -0.1,   -0.0,   -0.0,    0.1,    0.3,    0.2,    0.2,    0.0,    0.3,    0.2,    0.1,    0.1,    0.1,    0.2,    0.1,    0.2,    0.3,    0.2,    0.1,    0.0,   -0.0,   -0.0,    0.0,   -0.1,    0.1,   -0.0,    0.0,   -0.0,   -0.0,    0.0,   -0.1,   -0.0,    0.0,    0.0,   -0.0,    0.0,    0.0,    0.0,    0.0,  999.0,  999.0,   -0.0,    0.0,    0.0,  999.0,  999.0,  999.0,  999.0,  999.0,  999.0
2015/08/26 19:10,  999.0,   -1.0,   -1.3,   -1.3,   -0.8,   -0.8,   -0.9,   -1.2,   -1.1,   -1.2,   -1.6,   -1.6,   -1.5,   -1.3,   -0.9,   -0.5,   -0.4,   -0.3,   -0.3,   -0.3,   -0.1,   -0.2,   -0.3,   -0.1,   -0.0,   -0.0,   -0.1,   -0.1,   -0.1,   -0.3,   -0.2,   -0.3,   -0.2,    0.1,    0.0,    0.0,    0.0,    0.1,    0.1,    0.1,    0.1,    0.0,    0.0,   -0.0,   -0.0,   -0.0,   -0.1,   -0.1,   -0.0,    0.1,    0.0,   -0.0,    0.0,    0.0,    0.0,   -0.0,    0.0,   -0.0,   -0.0,    0.0,  999.0,   -0.0,    0.0,    0.0,    0.0,   -0.0,    0.0,   -0.0,    0.0,  999.0,  999.0,   -0.0,   -0.0,   -0.0,  999.0,  999.0,  999.0,  999.0,  999.0,  999.0
2015/08/26 19:20,  999.0,   -2.0,   -2.0,   -1.8,   -1.8,   -1.7,   -1.6,   -1.5,   -1.5,   -1.3,   -1.3,   -0.8,   -0.3,   -0.2,   -0.0,    0.0,    0.0,    0.0,    0.0,    0.0,   -0.0,    0.0,    0.0,    0.0,   -0.0,    0.0,    0.0,   -0.0,   -0.0,    0.0,   -0.0,   -0.1,   -0.2,   -0.3,   -0.3,   -0.3,   -0.4,   -0.2,   -0.2,   -0.2,   -0.0,   -0.0,   -0.0,   -0.0,    0.0,   -0.0,   -0.0,   -0.1,   -0.0,   -0.0,    0.0,    0.0,    0.0,   -0.0,    0.0,   -0.0,    0.0,    0.0,    0.0,    0.1,    0.0,    0.0,    0.0,   -0.0,   -0.0,   -0.0,   -0.0,   -0.0,   -0.0,  999.0,   -0.0,    0.0,   -0.1,    0.0,   -0.0,  999.0,  999.0,  999.0,  999.0,  999.0
2015/08/26 19:30,  999.0,   -1.2,   -1.3,   -1.2,   -0.5,   -0.2,   -0.4,   -0.3,   -0.1,   -0.1,    0.0,    0.0,    0.0,    0.1,    0.1,    0.1,    0.1,    0.1,    0.0,    0.0,    0.0,    0.0,    0.1,    0.0,    0.0,    0.0,    0.0,    0.1,    0.1,    0.0,   -0.0,   -0.1,   -0.1,   -0.0,    0.1,   -0.0,   -0.0,   -0.0,   -0.0,   -0.0,    0.0,    0.0,    0.0,    0.1,    0.0,    0.1,    0.1,    0.2,    0.2,   -0.0,    0.0,   -0.0,   -0.0,    0.0,    0.0,    0.0,   -0.0,   -0.0,   -0.0,    0.1,   -0.0,   -0.0,   -0.1,   -0.0,   -0.0,    0.0,    0.0,   -0.0,    0.0,   -0.0,   -0.0,   -0.0,    0.0,   -0.0,   -0.0,  999.0,  999.0,  999.0,  999.0,  999.0
2015/08/26 19:40,   -0.0,   -0.2,   -0.1,   -0.1,   -0.0,   -0.1,   -0.2,   -0.1,   -0.1,   -0.1,   -0.0,   -0.0,   -0.1,   -0.0,   -0.0,   -0.0,    0.0,    0.0,    0.0,    0.0,    0.0,   -0.0,   -0.0,    0.0,   -0.0,   -0.0,   -0.0,   -0.1,   -0.0,   -0.1,   -0.0,   -0.2,   -0.1,   -0.6,   -0.3,   -0.1,   -0.0,    0.1,    0.0,    0.0,   -0.0,    0.1,    0.1,    0.1,    0.1,    0.0,   -0.0,    0.1,    0.1,    0.1,    0.0,    0.0,    0.1,   -0.0,    0.1,    0.0,    0.0,   -0.0,    0.0,   -0.0,    0.0,  999.0,    0.0,    0.0,   -0.0,    0.0,    0.1,    0.1,    0.0,  999.0,    0.0,   -0.0,    0.0,    0.1,   -0.1,  999.0,  999.0,  999.0,  999.0,  999.0
2015/08/26 19:50,   -0.0,   -0.2,   -0.3,   -0.3,   -0.4,   -0.4,   -0.5,   -0.4,   -0.2,   -0.1,   -0.1,   -0.1,   -0.2,   -0.2,   -0.4,   -0.3,   -0.3,   -0.2,   -0.1,   -0.0,   -0.0,   -0.1,   -0.1,   -0.0,   -0.0,   -0.0,   -0.1,   -0.0,    0.0,    0.0,   -0.0,   -0.1,   -0.1,   -0.3,  999.0,    0.6,    0.1,    0.1,    0.2,    0.1,    0.1,    0.1,    0.2,    0.1,    0.1,    0.1,    0.1,    0.1,    0.1,    0.0,   -0.0,    0.0,    0.1,   -0.0,   -0.0,    0.0,    0.0,    0.1,   -0.0,    0.0,    0.0,   -0.0,   -0.0,   -0.0,   -0.0,    0.0,   -0.0,    0.0,   -0.0,  999.0,    0.0,  999.0,    0.0,    0.0,    0.0,  999.0,  999.0,  999.0,  999.0,  999.0
2015/08/26 20:00,   -0.0,   -0.8,   -0.9,   -0.8,   -0.6,   -0.9,   -0.6,   -0.9,   -0.8,   -1.1,   -1.4,   -1.8,   -1.7,   -1.5,   -1.2,   -1.0,   -0.4,   -0.3,   -0.1,   -0.1,   -0.1,    0.0,    0.0,   -0.0,    0.0,    0.1,   -0.1,   -0.1,   -0.2,    0.0,   -0.1,   -0.1,   -0.2,   -0.3,    0.1,    0.2,    0.2,    0.2,    0.2,    0.2,    0.1,    0.1,    0.0,    0.0,    0.0,    0.1,    0.1,    0.1,   -0.0,    0.0,   -0.0,   -0.1,    0.0,    0.0,   -0.1,    0.0,    0.0,    0.1,   -0.0,   -0.0,   -0.0,   -0.0,   -0.0,   -0.0,   -0.0,   -0.0,    0.0,   -0.0,  999.0,   -0.0,    0.0,   -0.0,   -0.0,    0.0,   -0.0,  999.0,  999.0,  999.0,  999.0,  999.0
2015/08/26 20:10,  999.0,   -2.2,   -2.4,   -2.3,   -2.2,   -2.2,   -2.0,   -1.9,   -1.7,   -1.6,   -1.5,   -1.1,   -0.6,   -0.6,   -0.5,   -0.4,   -0.2,   -0.1,   -0.1,   -0.1,   -0.1,   -0.2,   -0.2,   -0.1,   -0.1,   -0.1,   -0.3,   -0.1,   -0.1,   -0.0,   -0.1,   -0.2,   -0.1,   -0.1,    0.1,    0.2,    0.1,    0.1,    0.1,    0.2,    0.1,    0.1,    0.0,   -0.0,    0.0,   -0.0,    0.0,   -0.0,    0.0,    0.0,    0.0,   -0.0,    0.0,   -0.0,    0.0,   -0.0,   -0.1,   -0.1,    0.0,   -0.0,    0.0,   -0.0,    0.1,    0.0,    0.1,   -0.0,   -0.0,    0.0,  999.0,  999.0,   -0.0,   -0.0,   -0.0,   -0.0,   -0.0,  999.0,    0.0,  999.0,  999.0,  999.0
2015/08/26 20:20,  999.0,   -2.1,   -2.0,   -1.6,   -1.8,   -1.5,   -1.3,   -0.8,   -0.9,   -0.8,   -0.9,   -0.9,   -0.9,   -1.0,   -1.0,   -0.9,   -0.7,   -0.6,   -0.3,   -0.2,   -0.2,   -0.1,   -0.1,   -0.0,    0.0,   -0.1,   -0.2,   -0.1,   -0.0,   -0.2,   -0.2,   -0.1,   -0.1,    0.0,    0.3,    0.1,    0.2,    0.1,    0.2,    0.2,    0.1,    0.1,    0.2,    0.1,    0.0,    0.0,    0.0,   -0.0,    0.0,    0.0,   -0.0,    0.0,    0.0,    0.0,    0.0,   -0.0,   -0.0,   -0.0,    0.0,   -0.0,   -0.1,    0.1,    0.1,   -0.0,   -0.0,   -0.0,    0.0,   -0.0,  999.0,    0.0,   -0.0,   -0.0,    0.0,   -0.0,    0.0,  999.0,  999.0,  999.0,    0.1,  999.0
2015/08/26 20:30,  999.0,   -2.5,   -2.4,   -2.3,   -2.0,   -1.7,   -1.7,   -1.5,   -1.4,   -1.2,   -1.0,   -0.8,   -0.5,   -0.4,   -0.2,   -0.1,    0.0,    0.0,    0.0,    0.0,   -0.0,    0.0,    0.0,    0.0,   -0.0,   -0.5,   -0.4,   -0.3,   -0.4,   -0.5,   -0.4,   -0.2,   -0.2,   -0.2,   -0.2,   -0.2,   -0.2,   -0.1,   -0.2,   -0.1,   -0.0,   -0.0,   -0.0,    0.0,    0.0,    0.0,    0.0,    0.0,    0.0,    0.0,    0.1,    0.0,    0.0,   -0.0,   -0.0,    0.0,    0.0,   -0.0,    0.0,   -0.0,    0.0,   -0.0,    0.0,    0.0,   -0.0,    0.0,   -0.0,   -0.0,    0.0,    0.0,    0.1,    0.0,    0.0,   -0.0,   -0.0,  999.0,  999.0,  999.0,  999.0,  999.0
2015/08/26 20:40,  999.0,   -2.0,   -1.9,   -1.8,   -1.7,   -1.7,   -1.6,   -1.5,   -1.4,   -1.2,   -1.3,   -0.8,   -1.0,   -0.9,   -0.5,   -0.1,   -0.0,   -0.0,   -0.0,    0.0,   -0.0,    0.0,    0.0,   -0.0,   -0.1,   -0.2,   -0.2,   -0.1,   -0.3,   -0.3,   -0.3,   -0.3,   -0.3,   -0.6,   -0.3,   -0.2,   -0.1,   -0.0,   -0.0,   -0.0,   -0.0,   -0.0,   -0.0,    0.0,    0.0,    0.1,    0.0,    0.0,    0.1,    0.0,    0.0,    0.0,   -0.0,   -0.0,   -0.0,   -0.0,   -0.0,    0.0,   -0.0,    0.0,   -0.0,   -0.0,   -0.0,   -0.0,   -0.0,    0.0,   -0.0,   -0.0,    0.0,   -0.0,    0.0,  999.0,    0.0,   -0.0,   -0.0,  999.0,  999.0,  999.0,  999.0,  999.0
2015/08/26 20:50,  999.0,   -2.0,   -1.8,   -1.9,   -2.0,   -2.5,   -2.6,   -2.6,   -2.4,   -2.3,   -2.2,   -2.0,   -1.8,   -1.7,   -1.4,   -0.3,   -0.0,   -0.0,    0.0,    0.0,    0.1,    0.1,    0.1,    0.0,   -0.0,   -0.1,   -0.1,   -0.1,   -0.2,   -0.1,   -0.3,   -0.3,   -0.2,   -0.4,   -0.4,   -0.3,   -0.3,   -0.1,   -0.0,   -0.1,   -0.0,   -0.1,   -0.1,   -0.0,   -0.0,   -0.0,    0.0,   -0.0,   -0.0,   -0.0,   -0.0,   -0.0,    0.0,    0.0,    0.0,    0.0,   -0.0,   -0.0,   -0.0,    0.0,   -0.0,   -0.0,    0.0,   -0.0,   -0.0,    0.0,    0.0,    0.0,  999.0,   -0.0,   -0.1,   -0.0,    0.0,    0.0,    0.0,  999.0,  999.0,  999.0,  999.0,  999.0
2015/08/26 21:00,   -2.9,   -2.8,   -2.8,   -2.4,   -2.1,   -2.1,   -2.0,   -2.1,   -2.0,   -2.0,   -2.0,   -1.8,  999.0,   -1.6,   -0.5,   -0.2,   -0.1,   -0.1,   -0.0,   -0.0,    0.0,   -0.0,    0.1,    0.1,    0.0,    0.0,    0.0,   -0.0,   -0.2,   -0.2,   -0.3,   -0.3,   -0.4,   -0.5,   -0.5,   -0.2,   -0.1,   -0.0,    0.0,    0.0,    0.0,   -0.0,   -0.0,   -0.0,    0.0,    0.0,    0.0,    0.0,    0.0,   -0.0,    0.0,    0.0,   -0.0,   -0.0,    0.0,   -0.0,   -0.0,    0.1,    0.0,   -0.0,   -0.0,   -0.0,   -0.0,   -0.0,    0.0,   -0.0,   -0.0,    0.0,   -0.0,    0.1,  999.0,   -0.0,    0.0,    0.0,   -0.0,  999.0,  999.0,  999.0,  999.0,  999.0
2015/08/26 21:10,  999.0,   -2.3,   -2.2,   -1.4,   -1.1,   -1.1,   -1.2,   -0.8,   -1.1,   -0.9,   -0.7,   -0.6,   -0.6,   -0.1,   -0.1,   -0.1,   -0.0,   -0.0,    0.0,    0.0,    0.0,    0.0,    0.0,    0.0,    0.0,   -0.0,   -0.0,   -0.0,   -0.1,   -0.1,   -0.2,   -0.2,   -0.4,   -0.7,   -0.5,   -0.3,   -0.2,   -0.3,   -0.2,   -0.2,   -0.1,   -0.1,   -0.1,   -0.0,    0.0,   -0.1,   -0.0,   -0.0,    0.0,   -0.1,    0.0,    0.0,   -0.0,    0.0,    0.0,    0.0,    0.0,   -0.0,    0.0,    0.0,    0.0,   -0.0,    0.0,   -0.0,    0.0,    0.0,   -0.0,    0.0,  999.0,  999.0,  999.0,    0.0,   -0.0,   -0.0,   -0.0,  999.0,  999.0,  999.0,  999.0,  999.0
2015/08/26 21:20,   -0.0,   -0.1,   -0.1,   -0.2,   -0.1,   -0.1,   -0.1,   -0.1,   -0.1,   -0.1,   -0.0,    0.0,   -0.0,   -0.1,   -0.2,   -0.1,   -0.1,   -0.1,   -0.1,   -0.0,    0.0,    0.1,    0.1,    0.0,   -0.0,    0.0,    0.0,   -0.0,    0.0,   -0.0,   -0.0,   -0.1,   -0.0,   -0.3,   -0.4,   -0.4,   -0.2,   -0.3,   -0.1,   -0.1,   -0.0,    0.0,    0.0,   -0.0,    0.1,    0.0,   -0.0,   -0.0,   -0.0,    0.0,    0.0,    0.0,   -0.0,    0.0,   -0.0,    0.0,    0.0,    0.0,    0.0,   -0.0,    0.0,    0.0,   -0.0,   -0.0,   -0.0,   -0.0,   -0.0,    0.1,   -0.0,   -0.1,  999.0,   -0.1,    0.0,    0.0,   -0.1,  999.0,  999.0,  999.0,  999.0,  999.0
2015/08/26 21:30,   -0.0,   -0.2,   -0.2,   -0.3,   -0.2,   -0.2,   -0.2,   -0.1,   -0.1,   -0.0,   -0.0,    0.0,    0.0,    0.0,    0.0,    0.0,   -0.1,   -0.0,   -0.0,   -0.0,    0.0,    0.1,    0.0,    0.0,   -0.0,    0.0,    0.0,   -0.0,   -0.0,   -0.0,   -0.1,   -0.0,   -0.1,   -0.4,   -0.4,   -0.3,   -0.2,   -0.1,   -0.1,   -0.1,   -0.1,   -0.1,   -0.0,   -0.0,   -0.0,    0.0,   -0.0,   -0.0,   -0.0,    0.0,    0.1,    0.0,   -0.0,    0.0,    0.0,   -0.0,   -0.0,   -0.1,   -0.0,    0.0,   -0.0,   -0.0,    0.0,    0.0,   -0.0,    0.0,    0.0,   -0.0,    0.0,   -0.0,   -0.0,    0.1,   -0.0,   -0.0,   -0.1,  999.0,  999.0,  999.0,  999.0,  999.0
2015/08/26 21:40,   -0.0,   -0.2,   -0.3,   -0.3,   -0.3,   -0.3,   -0.3,   -0.2,   -0.1,   -0.1,    0.0,    0.0,    0.0,   -0.0,    0.0,    0.0,    0.0,    0.0,    0.0,    0.0,    0.0,   -0.0,   -0.0,    0.0,   -0.0,   -0.1,   -0.0,    0.0,   -0.0,   -0.1,   -0.1,   -0.1,   -0.2,   -0.4,   -0.4,   -0.3,   -0.2,   -0.2,   -0.1,   -0.3,   -0.0,   -0.1,   -0.1,   -0.1,   -0.1,   -0.0,   -0.0,   -0.0,   -0.0,   -0.0,   -0.0,   -0.0,   -0.0,   -0.0,   -0.1,   -0.0,    0.0,  999.0,   -0.0,   -0.0,    0.0,   -0.0,    0.0,    0.0,    0.0,    0.0,   -0.0,   -0.0,   -0.1,    0.0,   -0.1,    0.0,   -0.0,    0.0,    0.0,  999.0,  999.0,  999.0,  999.0,  999.0
2015/08/26 21:50,   -0.0,   -0.5,   -0.4,   -0.4,   -0.3,   -0.3,   -0.3,   -0.3,   -0.2,   -0.1,   -0.1,   -0.0,   -0.0,   -0.0,   -0.0,   -0.0,   -0.0,    0.0,    0.0,   -0.0,    0.0,    0.0,    0.0,    0.0,   -0.0,   -0.0,   -0.1,   -0.0,   -0.0,   -0.0,   -0.0,   -0.1,   -0.1,   -0.3,   -0.3,   -0.3,   -0.2,   -0.2,   -0.3,   -0.3,   -0.0,   -0.0,   -0.0,   -0.0,   -0.0,   -0.0,   -0.0,   -0.0,    0.0,    0.0,    0.0,   -0.0,   -0.0,    0.0,   -0.0,   -0.0,   -0.0,   -0.0,   -0.1,    0.0,    0.0,   -0.0,   -0.0,    0.0,    0.0,   -0.0,    0.0,   -0.0,    0.0,    0.0,   -0.0,    0.0,   -0.0,   -0.0,   -0.0,  999.0,  999.0,  999.0,  999.0,  999.0
2015/08/26 22:00,  999.0,   -0.2,   -0.3,   -0.3,   -0.3,   -0.3,   -0.5,   -0.3,   -0.1,   -0.1,   -0.0,   -0.0,   -0.0,   -0.1,   -0.1,   -0.2,   -0.2,   -0.1,   -0.1,   -0.0,   -0.0,    0.0,    0.1,    0.0,    0.0,   -0.0,   -0.0,   -0.0,    0.0,   -0.0,    0.0,    0.0,   -0.0,   -0.0,   -0.0,   -0.1,   -0.0,   -0.0,    0.1,    0.1,    0.1,    0.0,   -0.0,    0.0,    0.0,    0.1,    0.1,    0.0,   -0.0,    0.0,    0.0,    0.0,   -0.0,    0.0,   -0.0,   -0.0,    0.0,    0.0,    0.1,    0.0,   -0.0,   -0.0,    0.0,    0.0,    0.0,   -0.0,    0.0,    0.0,   -0.0,  999.0,   -0.0,   -0.0,    0.0,   -0.0,   -0.0,  999.0,  999.0,  999.0,  999.0,  999.0
2015/08/26 22:10,   -0.0,   -0.4,   -0.7,   -0.8,   -0.6,   -0.6,   -0.7,   -0.5,   -0.3,   -0.2,   -0.3,   -0.1,   -0.3,   -0.5,  999.0,  999.0,   -0.7,   -0.4,   -0.2,   -0.1,   -0.1,   -0.1,    0.0,    0.1,    0.0,   -0.0,    0.0,   -0.0,   -0.0,   -0.0,    0.0,    0.1,   -0.0,    0.1,    0.2,    0.1,    0.2,    0.2,    0.2,    0.2,    0.2,    0.1,    0.0,    0.1,    0.1,    0.2,    0.2,    0.1,    0.0,   -0.0,    0.0,   -0.0,    0.0,    0.0,   -0.0,    0.0,    0.0,   -0.0,    0.0,   -0.0,   -0.0,   -0.0,    0.0,    0.0,   -0.0,   -0.0,    0.0,    0.0,    0.1,    0.1,   -0.1,   -0.0,    0.0,   -0.0,   -0.0,  999.0,  999.0,  999.0,  999.0,  999.0
2015/08/26 22:20,   -0.2,   -0.9,   -0.8,   -0.9,   -0.9,   -0.8,   -1.1,   -0.9,   -0.2,   -1.4,   -1.1,   -1.4,   -1.3,   -1.3,   -1.1,   -0.9,   -0.7,   -0.4,   -0.3,   -0.3,   -0.1,   -0.1,   -0.1,   -0.1,   -0.0,   -0.0,   -0.1,   -0.1,   -0.0,    0.0,   -0.0,    0.0,    0.0,   -0.1,    0.1,    0.0,    0.0,    0.1,    0.1,    0.1,    0.1,   -0.0,   -0.0,   -0.1,   -0.1,   -0.1,   -0.1,   -0.1,    0.0,    0.0,    0.0,    0.0,   -0.1,    0.0,   -0.0,   -0.0,   -0.0,    0.0,    0.0,   -0.0,   -0.0,    0.0,    0.0,   -0.0,   -0.1,   -0.0,   -0.0,    0.0,   -0.0,   -0.0,   -0.0,  999.0,   -0.0,    0.0,   -0.0,  999.0,  999.0,  999.0,  999.0,  999.0
2015/08/26 22:30,   -2.6,   -2.6,   -2.4,   -2.6,   -2.5,   -2.3,   -2.1,   -2.0,   -1.9,   -1.8,   -1.6,   -1.5,   -1.4,   -1.3,   -1.2,   -0.9,   -0.7,   -0.4,   -0.2,   -0.2,   -0.1,   -0.0,    0.1,    0.1,    0.0,   -0.0,   -0.1,   -0.1,    0.0,   -0.1,   -0.1,   -0.0,   -0.1,   -0.1,   -0.1,   -0.2,   -0.1,   -0.0,    0.0,   -0.1,   -0.1,   -0.1,   -0.2,   -0.1,   -0.1,   -0.1,   -0.1,    0.1,    0.0,    0.0,   -0.0,   -0.0,   -0.0,    0.0,   -0.1,   -0.0,   -0.0,    0.0,    0.0,    0.0,    0.1,   -0.0,   -0.0,    0.0,    0.0,   -0.0,    0.0,    0.0,    0.0,   -0.0,    0.0,   -0.0,    0.0,    0.0,    0.0,  999.0,  999.0,  999.0,  999.0,  999.0
2015/08/26 22:40,   -2.2,   -2.4,   -2.4,   -2.4,   -2.3,   -2.2,   -2.0,   -1.9,   -1.8,   -1.6,   -1.5,   -1.5,   -1.5,   -1.4,   -1.2,   -0.9,   -0.6,   -0.4,   -0.2,   -0.2,   -0.1,   -0.5,  999.0,    0.1,   -0.1,   -0.5,   -0.5,   -0.3,   -0.3,   -0.5,   -0.2,   -0.2,   -0.1,   -0.2,   -0.2,   -0.1,   -0.1,   -0.1,   -0.1,   -0.1,   -0.0,    0.0,    0.1,    0.0,   -0.1,   -0.1,    0.0,    0.1,   -0.0,    0.0,   -0.0,   -0.0,   -0.0,   -0.0,   -0.0,    0.0,    0.0,    0.0,   -0.0,   -0.0,    0.0,   -0.0,    0.0,    0.0,    0.0,   -0.0,   -0.0,    0.0,   -0.1,  999.0,    0.0,   -0.0,   -0.0,   -0.0,    0.0,  999.0,  999.0,  999.0,  999.0,  999.0
2015/08/26 22:50,   -2.6,   -2.6,   -2.4,   -2.4,   -2.3,   -2.4,   -2.7,   -2.4,   -2.3,   -2.4,   -1.9,   -1.6,   -2.0,   -1.9,   -1.5,   -1.4,   -1.2,   -1.0,   -1.5,   -1.9,   -1.6,   -1.6,   -1.3,   -0.7,   -0.4,   -0.4,   -0.8,   -1.2,   -1.5,   -1.4,   -1.3,   -1.0,   -0.7,   -0.8,   -0.5,   -0.2,   -0.1,   -0.1,   -0.1,   -0.0,   -0.0,    0.1,    0.0,    0.1,    0.1,    0.0,   -0.0,    0.0,    0.0,   -0.0,   -0.0,    0.0,   -0.0,   -0.0,    0.0,   -0.0,   -0.0,    0.0,    0.0,    0.0,   -0.0,    0.0,    0.0,    0.0,   -0.0,   -0.0,   -0.0,    0.1,    0.1,    0.0,   -0.0,   -0.0,   -0.0,    0.0,   -0.0,  999.0,  999.0,  999.0,  999.0,  999.0
2015/08/26 23:00,   -3.9,   -3.9,   -3.5,   -3.5,   -3.4,   -3.4,   -3.3,   -3.2,   -3.0,   -2.7,   -2.5,   -2.4,   -2.6,   -2.9,   -3.0,   -3.1,   -3.0,   -3.0,   -2.9,   -2.7,   -2.5,   -2.5,   -2.5,   -2.0,   -2.1,   -2.0,   -2.0,   -1.9,   -1.7,   -1.4,   -1.2,   -0.8,   -0.5,   -0.6,   -0.5,   -0.2,   -0.1,    0.0,   -0.0,    0.1,    0.1,    0.1,    0.1,    0.1,    0.0,    0.0,    0.0,    0.0,    0.0,    0.0,    0.0,    0.0,   -0.0,    0.0,    0.0,    0.0,   -0.1,   -0.0,    0.0,    0.0,    0.0,   -0.0,    0.0,    0.0,   -0.0,   -0.0,   -0.0,   -0.0,    0.1,    0.0,    0.1,    0.0,   -0.0,   -0.1,    0.0,  999.0,    0.3,  999.0,  999.0,  999.0
2015/08/26 23:10,   -2.6,   -2.6,   -2.8,   -2.9,   -3.0,   -2.9,   -2.8,   -2.7,   -2.6,   -2.6,   -2.7,   -2.6,   -2.6,   -2.4,   -2.3,   -2.2,   -2.0,   -1.8,   -1.5,   -1.2,   -0.7,   -0.6,   -0.5,   -0.2,   -0.6,    0.0,   -0.5,   -0.6,   -0.5,   -0.3,   -0.3,   -0.2,   -0.1,   -0.1,   -0.1,    0.0,    0.0,   -0.1,   -0.1,   -0.2,   -0.0,    0.0,    0.1,    0.0,   -0.0,   -0.0,    0.0,   -0.0,    0.0,   -0.0,   -0.0,   -0.0,   -0.0,   -0.1,    0.0,   -0.0,   -0.0,   -0.0,   -0.0,    0.0,   -0.0,   -0.0,   -0.0,   -0.0,   -0.0,    0.0,    0.0,    0.0,    0.0,   -0.0,   -0.0,   -0.0,   -0.0,    0.0,   -0.0,  999.0,  999.0,  999.0,  999.0,  999.0
2015/08/26 23:20,   -3.9,   -3.8,   -3.6,   -3.6,   -3.5,   -3.3,   -3.1,   -3.0,   -2.8,   -2.6,   -2.5,   -2.4,   -2.3,   -2.2,   -2.0,   -1.7,   -1.5,   -1.3,   -1.0,   -0.9,   -0.8,   -0.7,   -0.6,   -0.5,   -0.4,   -0.4,   -0.3,   -0.2,   -0.1,   -0.2,   -0.2,   -0.2,   -0.3,   -0.3,   -0.4,   -0.3,   -0.2,   -0.0,    0.2,    0.2,    0.1,    0.1,    0.0,    0.0,    0.2,    0.2,    0.1,    0.1,   -0.0,    0.0,   -0.0,    0.0,    0.0,   -0.0,   -0.0,    0.0,   -0.0,  999.0,    0.0,    0.0,    0.0,   -0.0,   -0.0,   -0.0,   -0.0,    0.1,    0.0,    0.0,  999.0,  999.0,   -0.0,   -0.0,    0.1,    0.1,   -0.0,  999.0,  999.0,  999.0,  999.0,  999.0
2015/08/26 23:30,   -3.9,   -3.6,   -3.5,   -3.5,   -3.5,   -3.6,   -3.5,   -3.6,   -3.4,   -3.3,   -3.5,   -3.8,   -3.8,   -3.5,   -3.5,   -3.6,   -3.3,   -3.5,   -3.3,   -3.2,   -3.1,   -3.1,   -2.8,   -2.9,   -2.8,   -3.1,   -2.9,   -2.9,   -3.0,   -2.9,   -2.8,   -2.8,   -2.7,   -2.6,   -2.4,   -2.3,   -2.0,   -1.8,   -1.6,   -1.2,   -1.0,   -0.8,   -0.6,   -0.2,   -0.1,   -0.1,   -0.0,    0.2,    0.3,  999.0,    0.0,    0.0,   -0.0,    0.0,    0.0,   -0.0,    0.0,    0.0,    0.0,   -0.0,   -0.1,   -0.0,   -0.0,   -0.0,   -0.0,   -0.0,    0.0,   -0.0,   -0.0,   -0.1,   -0.1,    0.1,   -0.0,   -0.0,   -0.0,  999.0,   -0.0,  999.0,  999.0,  999.0
2015/08/26 23:40,   -4.4,   -4.4,   -4.4,   -4.4,   -4.4,   -4.4,   -4.4,   -4.4,   -4.4,   -4.3,   -4.3,   -4.3,   -4.3,   -4.2,   -4.1,   -3.9,   -3.7,   -3.3,   -3.2,   -3.2,   -3.0,   -3.1,   -2.9,   -2.9,   -2.9,   -2.9,   -2.8,   -2.8,   -2.7,   -2.6,   -2.4,   -2.2,   -2.0,   -1.8,   -1.6,   -1.3,   -1.1,   -0.8,   -0.6,   -0.5,   -0.4,   -0.3,   -0.2,    0.3,    0.4,    0.4,    0.2,  999.0,  999.0,   -0.3,   -0.2,  999.0,   -0.0,    0.0,   -0.0,    0.0,   -0.0,  999.0,    0.0,   -0.0,    0.0,    0.0,  999.0,   -0.0,   -0.0,   -0.0,  999.0,    0.0,    0.0,  999.0,  999.0,   -0.0,   -0.1,   -0.0,   -0.0,  999.0,  999.0,  999.0,  999.0,  999.0
2015/08/26 23:50,   -4.4,   -4.5,   -4.4,   -4.4,   -4.3,   -4.3,   -4.2,   -4.2,   -3.9,   -3.9,   -3.9,   -3.9,   -3.9,   -3.9,   -3.7,   -3.4,   -3.2,   -3.2,   -3.1,   -3.0,   -3.0,   -3.0,   -3.0,   -3.0,   -2.9,   -2.8,   -2.7,   -2.6,   -2.6,   -2.4,   -2.2,   -2.0,   -1.8,   -1.7,   -1.5,   -1.3,   -0.9,   -0.4,   -0.4,   -0.3,   -0.1,   -0.1,   -0.0,   -0.1,    0.0,    0.1,    0.1,   -0.1,   -0.2,   -0.2,   -0.1,   -0.0,   -0.0,    0.0,   -0.0,   -0.0,   -0.0,   -0.0,    0.0,   -0.0,    0.0,    0.0,    0.0,   -0.0,    0.0,    0.0,    0.0,    0.0,   -0.0,    0.0,    0.0,  999.0,    0.0,   -0.0,   -0.0,  999.0,  999.0,  999.0,  999.0,  999.0
